Calls for Service

Disclaimer: This information is not intended to be used as official crime data. This program does not provide information about all crimes, and excludes specific incidents such as sexual assaults and child abuse. The City of Conway Police Department makes every effort to produce and publish current and accurate information. No warranties, expressed or implied, are provided for the data herein, its use, or its interpretation. The services provided are for informational purposes only and should not be relied on for any type of legal action.

Loading calls...
Showing calls from previous 10 days
Call Number Case Number Address Call Time Incident Type
19-1101880 1090 SKYLINE DR 2019-11-12 21:50:46.263 INTOXICATED DRIVER
19-1101878 631 WESTERN AV 2019-11-12 21:12:52.173 ALARM
19-1101877 1405 S DONAGHEY AV 2019-11-12 20:48:28.253 DOMESTIC DISTURBANCE
19-1101876 3000 PEBBLE BEACH DR 2019-11-12 20:34:47.240 ACCIDENT - PROPERTY DAMAGE
19-1101875 1601 HOGAN LN 2019-11-12 20:23:22.600 CHECK ON THE WELFARE
19-1101874 19-12585 503 SIEBENMORGEN RD 2019-11-12 20:23:02.097 PURSUIT
19-1101873 631 WESTERN AV 2019-11-12 20:12:07.923 ALARM
19-1101872 500 LOCUST AV 2019-11-12 20:09:03.340 PARKING VIOLATION
19-1101869 2415 JESSICA DR 2019-11-12 19:58:26.647 TERRORISTIC THREATENING
19-1101868 1701 WASHINGTON AV 2019-11-12 19:56:06.590 STALLED VEHICLE
19-1101867 3100 PEBBLE BEACH DR 2019-11-12 19:13:44.533 DOMESTIC DISTURBANCE
19-1101860 500 OAK ST 2019-11-12 18:59:42.267 CHECK ON THE WELFARE
19-1101859 19-12583 705 E SIEBENMORGEN RD 2019-11-12 18:56:20.983 ACCIDENT - PRIVATE PROPERTY
19-1101858 19-12584 1555 EXCHANGE AV 2019-11-12 18:39:14.540 DISTURBANCE
19-1101856 600 UNITED DR 2019-11-12 17:57:37.600 SUSPICIOUS VEHICLE
19-1101855 500 SOUTH GERMAN LN 2019-11-12 17:48:51.740 ATTEMPT TO CONTACT
19-1101854 1214 HOGAN LN 2019-11-12 17:48:38.440 ALARM
19-1101853 400 POLK ST 2019-11-12 17:47:54.817 CIVIL STAND BY
19-1101852 1610 WESTLAKE DR 2019-11-12 17:45:09.910 ATTEMPT TO CONTACT
19-1101851 19-12582 2695 DAVE WARD DR 2019-11-12 17:44:12.340 BREAKING OR ENTERING
19-1101850 19-12580 551 HARKRIDER ST 2019-11-12 17:33:42.527 FOUND PROPERTY
19-1101849 1610 WESTLAKE DR 2019-11-12 17:26:39.360 CHECK ON THE WELFARE
19-1101846 202 S DONAGHEY AV 2019-11-12 17:16:21.200 STALLED VEHICLE
19-1101845 19-12581 301 E DAVE WARD DR 2019-11-12 17:12:39.127 ACCIDENT - PRIVATE PROPERTY
19-1101843 1404 HARTJE LN 2019-11-12 16:56:43.527 SUPPLEMENT REPORT CALL
19-1101842 201 SKYLINE DR 2019-11-12 16:53:41.013 ENDANGERING WELFARE OF MINOR
19-1101839 221 E OAK ST 2019-11-12 16:50:03.683 STALLED VEHICLE
19-1101838 1500 MIDDLE RD 2019-11-12 16:38:52.237 SUSPICIOUS VEHICLE
19-1101837 19-12579 255 TILK RD 2019-11-12 16:33:46.853 THEFT OF VEHICLE
19-1101835 3060 OLD MORRILTON HWY 2019-11-12 16:30:46.497 TRAFFIC PROBLEM-CONTROL
19-1101834 19-12578 551 HARKRIDER ST 2019-11-12 16:30:27.680 FRAUD
19-1101831 102 OAKLAWN DR 2019-11-12 16:06:21.080 FRAUD
19-1101830 19-12576 2755 DAVE WARD DR 2019-11-12 16:05:59.910 FRAUD
19-1101829 19-12577 1104 E OAK ST 2019-11-12 16:02:27.697 FRAUD
19-1101828 905 E OAK ST 2019-11-12 15:58:22.513 SUPPLEMENT REPORT CALL
19-1101827 180 GRAND FALLS 2019-11-12 15:50:45.750 TRESPASSING
19-1101826 475 ROBINS ST 2019-11-12 15:47:21.060 ATTEMPT TO CONTACT
19-1101824 19-12575 855 SALEM RD 2019-11-12 15:17:04.060 ACCIDENT - PRIVATE PROPERTY
19-1101823 25 WOODLAWN DR 2019-11-12 15:14:59.030 SUPPLEMENT REPORT CALL
19-1101820 701 ROBINS ST 2019-11-12 15:02:56.277 CHECKING PERSON
19-1101818 2840 DAVE WARD DR 2019-11-12 14:47:01.550 TRESPASSING
19-1101817 600 SKYLINE DR 2019-11-12 14:44:11.740 SUSPICIOUS VEHICLE
19-1101815 57 EASTERWOOD POINT 2019-11-12 14:38:04.833 ATTEMPT TO CONTACT
19-1101814 19-12574 1601 HOGAN LN 2019-11-12 14:25:47.327 ACCIDENT - PRIVATE PROPERTY
19-1101812 5220 TENNYSON DR 2019-11-12 14:17:07.750 AGENCY ASSIST
19-1101810 1370 STURGIS RD 2019-11-12 14:07:57.307 911 HANGUP CALL
19-1101804 603 5TH AV 2019-11-12 13:26:38.507 ATTEMPT TO CONTACT
19-1101801 1050 NEAL ST 2019-11-12 13:14:25.733 CHECKING PERSON
19-1101795 475 ROBINS ST 2019-11-12 12:34:44.643 CHECK ON THE WELFARE
19-1101793 19-12570 401 AMITY RD 2019-11-12 12:28:09.860 ACCIDENT - PERSONAL INJURY
19-1101792 2010 HAIRSTON AV 2019-11-12 12:27:00.843 CHECK ON THE WELFARE
19-1101791 19-12568 20 KINLEY DR 2019-11-12 12:15:47.077 ACCIDENT - PRIVATE PROPERTY
19-1101788 1965 HENRY ST 2019-11-12 12:09:56.180 THEFT OF VEHICLE
19-1101786 1967 ROBINS ST 2019-11-12 11:58:12.087 ATTEMPT TO CONTACT
19-1101785 4605 SAWGRASS CV 2019-11-12 11:51:32.770 ALARM
19-1101784 19-12566 501 COUNTRY CLUB RD 2019-11-12 11:36:56.413 ACCIDENT - PROPERTY DAMAGE
19-1101781 1001 DONAGHEY AV 2019-11-12 11:22:18.387 RECKLESS DRIVER
19-1101780 19-12569 1702 SIMMS ST 2019-11-12 11:21:48.947 DOMESTIC DISTURBANCE
19-1101778 1717 S DONAGHEY AV 2019-11-12 11:19:00.263 THEFT OF VEHICLE
19-1101777 101 OAK ST 2019-11-12 11:13:08.490 ATTEMPT TO CONTACT
19-1101776 19-12565 2603 DAVE WARD DR 2019-11-12 11:06:16.060 ABUSE
19-1101773 472 INGRAM ST 2019-11-12 10:54:18.940 OPEN DOOR/WINDOW/FENCE
19-1101772 412 INGRAM ST 2019-11-12 10:52:13.193 ATTEMPT TO CONTACT
19-1101770 19-12564 1114 GUM ST 2019-11-12 10:36:24.493 BURGLARY
19-1101768 19-12563 103 MITCHELL ST 2019-11-12 10:30:59.617 LOST CHILD-FOUND CHILD
19-1101767 1114 GUM ST 2019-11-12 10:28:37.727 ATTEMPT TO CONTACT
19-1101765 19-12561 507 MITCHELL ST 2019-11-12 10:02:08.463 PROPERTY DAMAGE
19-1101764 1709 DONAGHEY AV 2019-11-12 09:56:03.910 VEHICLE TOW
19-1101763 1709 DONAGHEY AV 2019-11-12 09:53:28.553 VEHICLE TOW
19-1101762 2015 RICH SMITH LN 2019-11-12 09:48:08.790 DISTURBANCE
19-1101760 1345 BLUSTERY WAY 2019-11-12 09:39:16.337 SUPPLEMENT REPORT CALL
19-1101759 865 HERITAGE POINT DR 2019-11-12 09:31:33.923 ALARM
19-1101757 2930 PRINCE ST 2019-11-12 09:24:17.643 FOUND PROPERTY
19-1101756 19-12559 2100 DAVE WARD DR 2019-11-12 09:09:43.027 ACCIDENT - PROPERTY DAMAGE
19-1101755 500 SOUTH GERMAN LN 2019-11-12 09:08:27.090 ATTEMPT TO CONTACT
19-1101754 1900 COLLEGE AV 2019-11-12 09:05:22.270 SUPPLEMENT REPORT CALL
19-1101751 19-12558 1630 SWEETSPIRE DR 2019-11-12 08:51:12.777 FOUND PROPERTY
19-1101750 19-12562 551 HARKRIDER ST 2019-11-12 08:51:01.177 FRAUD
19-1101749 19-12557 2330 SANDERS ST 2019-11-12 08:49:30.240 CRIMINAL MISCHIEF
19-1101747 19-12554 1200 BOB COURTWAY DR 2019-11-12 08:18:01.630 ATTEMPT TO CONTACT
19-1101745 19-12552 1360 BRUCE ST 2019-11-12 08:10:36.370 ACCIDENT - HIT AND RUN
19-1101742 19-12549 2001 FLORENCE MATTISON DR 2019-11-12 08:03:57.560 ACCIDENT - PRIVATE PROPERTY
19-1101740 19-12551 1001 SALEM RD 2019-11-12 07:55:30.867 ACCIDENT - PROPERTY DAMAGE
19-1101738 19-12550 4202 PRINCE ST 2019-11-12 07:43:25.140 ACCIDENT - PROPERTY DAMAGE
19-1101736 930 GRANITE LN 2019-11-12 07:38:14.337 ATTEMPT TO CONTACT
19-1101735 19-12547 1301 CLIFTON ST 2019-11-12 07:30:59.910 MISDEMEANOR WARRANT SERVICE
19-1101734 314 ELIZABETH ST 2019-11-12 07:29:33.270 ATTEMPT TO CONTACT
19-1101733 701 REEDY RD 2019-11-12 07:26:03.227 ATTEMPT TO CONTACT
19-1101732 1313 MCNUTT RD 2019-11-12 07:21:58.593 ATTEMPT TO CONTACT
19-1101731 2100 DAVE WARD DR 2019-11-12 07:21:14.397 CHECK ON THE WELFARE
19-1101728 2101 PRINCE ST 2019-11-12 06:16:39.510 TRAFFIC PROBLEM-CONTROL
19-1101727 600 E DAVE WARD DR 2019-11-12 06:06:25.380 STALLED VEHICLE
19-1101723 675 AMITY RD 2019-11-12 04:28:53.603 ALARM
19-1101720 675 AMITY RD 2019-11-12 03:56:56.980 ALARM
19-1101719 1399 MARKHAM ST 2019-11-12 03:44:53.780 WEATHER RELATED CALLS-PROBLEMS
19-1101718 365 DAVIS ST 2019-11-12 02:01:34.427 BURGLARY
19-1101717 867 FENDLEY DR 2019-11-12 01:54:47.330 SUSPICIOUS VEHICLE
19-1101716 1010 MAIN ST 2019-11-12 01:49:39.150 CHECK ON THE WELFARE
19-1101715 735 PADDINGTON DR 2019-11-12 01:38:45.213 CHECKING VEHICLE
19-1101713 1422 CALDWELL ST 2019-11-11 22:39:54.740 SUSPICIOUS ACTIVITY
19-1101712 1890 E OAK ST 2019-11-11 22:35:24.917 CHECK ON THE WELFARE
19-1101711 2019-11-11 22:28:14.363 ATTEMPT TO CONTACT
19-1101710 150 SKYLINE DR 2019-11-11 22:17:38.280 SUPPLEMENT REPORT CALL
19-1101709 19-12544 400 EXECUTIVE CENTER BLVD 2019-11-11 22:13:45.030 ACCIDENT - PROPERTY DAMAGE
19-1101708 19-12543 300 S DONAGHEY AV 2019-11-11 21:52:44.133 LOUD NOISE-MUSIC
19-1101707 3085 DAVE WARD DR 2019-11-11 21:40:46.520 LOUD NOISE-MUSIC
19-1101706 701 2ND AV 2019-11-11 21:30:53.500 BARKING DOG COMPLAINT
19-1101704 19-12542 810 MUSEUM RD 2019-11-11 21:10:42.827 DOMESTIC DISTURBANCE
19-1101703 1155 SKYLINE DR 2019-11-11 21:09:24.403 SHOPLIFTING
19-1101702 3240 STERMER RD 2019-11-11 21:01:29.203 DISTURBANCE
19-1101700 545 SKYLINE DR 2019-11-11 20:51:56.900 ATTEMPT TO CONTACT
19-1101699 631 WESTERN AV 2019-11-11 20:46:27.697 ALARM
19-1101698 2275 MOIX BLVD 2019-11-11 20:28:20.577 THEFT OF PROPERTY
19-1101697 631 WESTERN AV 2019-11-11 20:15:11.207 ALARM
19-1101696 1920 HENRY ST 2019-11-11 20:13:07.440 CHECK ON THE WELFARE
19-1101695 19-12541 2051 HARKRIDER ST 2019-11-11 19:59:31.600 SUPPLEMENT REPORT CALL
19-1101694 2815 PEBBLE BEACH DR 2019-11-11 19:57:27.850 DOMESTIC DISTURBANCE
19-1101692 22 FORREST LN 2019-11-11 19:49:01.723 SUPPLEMENT REPORT CALL
19-1101688 3240 STERMER RD 2019-11-11 19:33:49.300 DISTURBANCE
19-1101687 1701 HAIRSTON AV 2019-11-11 19:28:18.387 LOUD NOISE-MUSIC
19-1101686 810 MUSEUM RD 2019-11-11 19:17:38.320 DOMESTIC DISTURBANCE
19-1101684 2051 HARKRIDER ST 2019-11-11 19:05:08.853 SHOPLIFTING
19-1101681 1001 MCNUTT RD 2019-11-11 18:52:11.637 TRESPASSING
19-1101679 475 ROBINS ST 2019-11-11 18:47:03.520 SUSPICIOUS PERSON
19-1101678 1536 CLIFTON ST 2019-11-11 18:34:45.433 CHECK ON THE WELFARE
19-1101676 816 E OAK ST 2019-11-11 18:28:49.907 TRAFFIC PROBLEM-CONTROL
19-1101675 1830 S SALEM RD 2019-11-11 18:27:37.517 LOST PROPERTY
19-1101673 935 E OAK ST 2019-11-11 18:11:41.310 SUPPLEMENT REPORT CALL
19-1101672 19-12539 600 ELSINGER BLVD 2019-11-11 18:08:25.973 SHOPLIFTING
19-1101671 19-12537 1405 S DONAGHEY AV 2019-11-11 18:02:03.840 CRIMINAL MISCHIEF
19-1101670 19-12538 1155 STEEL AV 2019-11-11 17:58:41.140 ACCIDENT - PROPERTY DAMAGE
19-1101669 1501 HOGAN LN 2019-11-11 17:52:35.747 RECKLESS DRIVER
19-1101668 2805 PRINCE ST 2019-11-11 17:52:01.427 SUSPICIOUS PERSON
19-1101667 35 FORREST CT 2019-11-11 17:51:47.140 DOMESTIC DISTURBANCE
19-1101666 1023 MAIN ST 2019-11-11 17:51:35.353 DISTURBANCE
19-1101664 2405 WILMINGTON DR 2019-11-11 17:47:20.187 ALARM
19-1101663 1405 S DONAGHEY AV 2019-11-11 17:14:39.603 CIVIL STAND BY
19-1101662 22 FORREST LN 2019-11-11 17:08:33.133 SUPPLEMENT REPORT CALL
19-1101661 501 ELSINGER BLVD 2019-11-11 17:07:19.247 CITIZEN ASSIST
19-1101660 409 S CENTER ST 2019-11-11 17:06:43.930 HARASSING COMMUNICATIONS
19-1101659 230 S MITCHELL ST 2019-11-11 16:59:48.670 ATTEMPT TO CONTACT
19-1101658 19-12536 541 2ND AV 2019-11-11 16:37:09.510 ACCIDENT - PRIVATE PROPERTY
19-1101657 35 FORREST CT 2019-11-11 16:32:47.840 DOMESTIC DISTURBANCE
19-1101655 2235 DAVE WARD DR 2019-11-11 16:21:04.127 RECKLESS DRIVER
19-1101654 19-12535 1628 INDEPENDENCE ST 2019-11-11 16:03:42.060 DOMESTIC DISTURBANCE
19-1101653 811 E OAK ST 2019-11-11 15:52:32.580 CHECK ON THE WELFARE
19-1101651 414 OAK ST 2019-11-11 15:33:44.983 FOUND PROPERTY
19-1101650 19-12533 1201 DONAGHEY AV 2019-11-11 15:27:38.507 FOUND PROPERTY
19-1101649 800 PADGETT RD 2019-11-11 15:24:46.143 ACCIDENT - PRIVATE PROPERTY
19-1101646 19-12534 150 SKYLINE DR 2019-11-11 15:10:34.813 DISTURBANCE
19-1101645 19-12531 101 OAK ST 2019-11-11 15:07:43.250 ACCIDENT - PRIVATE PROPERTY
19-1101644 19-12530 2102 BRUCE ST 2019-11-11 15:04:40.133 ACCIDENT - PROPERTY DAMAGE
19-1101643 1000 SWN DR 2019-11-11 15:00:23.403 PROPERTY DAMAGE
19-1101642 19-12529 501 ELSINGER BLVD 2019-11-11 14:41:34.673 ACCIDENT - PRIVATE PROPERTY
19-1101641 2840 DAVE WARD DR 2019-11-11 14:27:54.800 AGENCY ASSIST
19-1101638 2101 LEE AV 2019-11-11 14:14:59.860 FIRE DEPT ASSIST
19-1101637 2699 DONAGHEY AV 2019-11-11 14:11:52.680 TRAFFIC LIGHT PROBLEM
19-1101635 2550 PRINCE ST 2019-11-11 14:10:44.087 VEHICLE TOW
19-1101633 19-12527 1525 CLIFTON ST 2019-11-11 14:05:11.720 ATTEMPT TO CONTACT
19-1101632 19-12528 1830 S SALEM RD 2019-11-11 14:02:22.650 FOUND PROPERTY
19-1101631 655 ELSINGER BLVD 2019-11-11 13:52:44.463 SERVING SUBPOENA
19-1101630 1155 SKYLINE DR 2019-11-11 13:48:07.737 SUPPLEMENT REPORT CALL
19-1101629 1302 DONAGHEY AV 2019-11-11 13:46:01.340 TRAFFIC PROBLEM-CONTROL
19-1101628 19-12526 124 I40EB 2019-11-11 13:44:39.407 ACCIDENT - PROPERTY DAMAGE
19-1101627 19-12525 935 E OAK ST 2019-11-11 13:21:19.380 THEFT OF PROPERTY
19-1101626 1250 S AMITY RD 2019-11-11 13:18:55.753 FOUND PROPERTY
19-1101625 109 GRIFFITH ST 2019-11-11 13:17:10.220 ATTEMPT TO CONTACT
19-1101623 2550 PRINCE ST 2019-11-11 13:11:55.930 ABANDONED VEHICLE
19-1101621 1105 PRAIRIE ST 2019-11-11 12:24:35.603 SERVING SUBPOENA
19-1101620 2045 EDITH CIR 2019-11-11 12:22:22.323 ALARM
19-1101619 19-12523 900 INGRAM ST 2019-11-11 12:15:10.263 ACCIDENT - PROPERTY DAMAGE
19-1101617 19-12522 2840 DAVE WARD DR 2019-11-11 11:20:18.227 MISDEMEANOR WARRANT SERVICE
19-1101616 19-12521 1319 HILLCREST DR 2019-11-11 11:07:11.907 ACCIDENT - PRIVATE PROPERTY
19-1101615 1313 MCNUTT RD 2019-11-11 11:07:10.140 ATTEMPT TO CONTACT
19-1101611 701 REEDY RD 2019-11-11 10:25:46.540 ATTEMPT TO CONTACT
19-1101610 19-12519 1670 NUTHATCH CIR 2019-11-11 10:19:34.750 DEATH CALL
19-1101608 2403 JESSICA DR 2019-11-11 10:16:51.397 ATTEMPT TO CONTACT
19-1101607 12 OAKDALE CIR 2019-11-11 10:08:02.760 ATTEMPT TO CONTACT
19-1101606 19-12520 2102 BRUCE ST 2019-11-11 10:04:04.687 ACCIDENT - PROPERTY DAMAGE
19-1101605 1918 TORREYSON ST 2019-11-11 10:01:26.787 ATTEMPT TO CONTACT
19-1101604 1601 HOGAN LN 2019-11-11 09:55:38.910 DOMESTIC DISTURBANCE
19-1101602 19-12518 1399 MARKHAM ST 2019-11-11 09:51:28.020 ACCIDENT - PROPERTY DAMAGE
19-1101600 19-12516 2310 E OAK ST 2019-11-11 09:15:47.617 ACCIDENT - PROPERTY DAMAGE
19-1101598 603 5TH AV 2019-11-11 09:13:39.713 ATTEMPT TO CONTACT
19-1101597 19-12515 1460 SOUTHERN HILLS DR 2019-11-11 09:11:43.123 MISDEMEANOR WARRANT SERVICE
19-1101596 1704 CLIFTON ST 2019-11-11 09:10:10.813 HARASSING COMMUNICATIONS
19-1101593 2410 O'BRYANT ST 2019-11-11 08:40:19.870 VEHICLE TOW
19-1101592 1220 BIRD SONG DR 2019-11-11 08:35:47.740 SUPPLEMENT REPORT CALL
19-1101590 825 PARKWAY ST 2019-11-11 08:24:04.213 ALARM
19-1101586 1115 E OAK ST 2019-11-11 08:08:54.100 ATTEMPT TO CONTACT
19-1101585 19-12512 911 S HARKRIDER DR 2019-11-11 08:04:28.697 ACCIDENT - PROPERTY DAMAGE
19-1101584 19-12511 150 E SIEBENMORGEN RD 2019-11-11 07:30:58.870 NEGLECT
19-1101583 2390 DAHLIA 2019-11-11 07:28:23.653 DOMESTIC DISTURBANCE
19-1101581 1701 DAVE WARD DR 2019-11-11 04:58:58.563 HARASSMENT
19-1101580 19-12510 1650 FREYALDENHOVEN LN 2019-11-11 04:36:43.463 UNKNOWN TROUBLE
19-1101579 1405 S DONAGHEY AV 2019-11-11 02:52:00.310 SHOTS FIRED
19-1101577 19-12508 3601 TYLER ST 2019-11-11 02:14:24.683 STALLED VEHICLE
19-1101574 19-12507 2110 LOUVENIA AV 2019-11-11 01:34:04.863 AGENCY ASSIST
19-1101573 19-12506 3900 DAVE WARD DR 2019-11-11 01:21:36.283 ACCIDENT - PROPERTY DAMAGE
19-1101572 1611 E OAK ST 2019-11-11 01:02:47.697 FIGHT
19-1101569 1620 MIDDLE RD 2019-11-11 00:45:10.383 DOMESTIC DISTURBANCE
19-1101568 1 CADRON SETTLEMENT PARK RD 2019-11-10 23:55:45.750 CHECKING BUILDING
19-1101567 150 E OAK ST 2019-11-10 23:50:07.973 CHECK ON THE WELFARE
19-1101564 1023 MAIN ST 2019-11-10 23:31:19.060 CHECKING VEHICLE
19-1101562 350 DONAGHEY AV 2019-11-10 23:03:24.017 CHECKING VEHICLE
19-1101561 105 S CENTER ST 2019-11-10 22:48:46.997 DOMESTIC DISTURBANCE
19-1101560 380 HARKRIDER ST 2019-11-10 22:37:34.037 ALARM
19-1101557 2100 ARKANSAS AV 2019-11-10 22:27:57.707 SUSPICIOUS ACTIVITY
19-1101554 1530 GRAYBEARD DR 2019-11-10 21:59:05.490 SUSPICIOUS PERSON
19-1101551 1825 PEARCE DR 2019-11-10 20:58:30.820 911 HANGUP CALL
19-1101550 300 S DONAGHEY AV 2019-11-10 20:26:07.890 SUSPICIOUS VEHICLE
19-1101549 3240 STERMER RD 2019-11-10 20:24:54.603 911 HANGUP CALL
19-1101548 1120 CLARENCE DR 2019-11-10 20:23:51.260 ALARM
19-1101547 1090 SKYLINE DR 2019-11-10 20:21:13.997 INTOXICATED PERSON
19-1101546 19-12504 905 E OAK ST 2019-11-10 20:14:46.390 ACCIDENT - PROPERTY DAMAGE
19-1101543 19-12503 22 FORREST LN 2019-11-10 19:43:01.703 CRIMINAL MISCHIEF
19-1101542 205 SOUTH HAMPTON DR 2019-11-10 19:40:32.260 DOMESTIC DISTURBANCE
19-1101541 205 SOUTH HAMPTON DR 2019-11-10 19:40:15.363 DOMESTIC DISTURBANCE
19-1101540 19-12502 1090 SKYLINE DR 2019-11-10 19:39:55.417 THEFT OF PROPERTY
19-1101539 1235 OAK ST 2019-11-10 19:26:59.307 STALLED VEHICLE
19-1101538 19-12501 1404 HARTJE LN 2019-11-10 19:24:44.827 THEFT OF VEHICLE
19-1101537 625 INGRAM VILLAGE DR 2019-11-10 19:23:22.417 CHECK ON THE WELFARE
19-1101536 1405 BLUSTERY WAY 2019-11-10 19:07:50.263 BATTERY REPORT
19-1101535 19-12500 1155 SKYLINE DR 2019-11-10 19:04:34.020 CRIMINAL MISCHIEF
19-1101534 511 1ST ST 2019-11-10 19:01:29.077 SUPPLEMENT REPORT CALL
19-1101533 19-12498 1025 S AMITY RD 2019-11-10 18:55:54.370 ACCIDENT - PRIVATE PROPERTY
19-1101530 19-12499 3075 SASSY RD 2019-11-10 18:32:43.663 ANIMAL BITE
19-1101528 19-12497 1112 GUM ST 2019-11-10 18:23:43.580 BREAKING OR ENTERING
19-1101527 19-12495 428 GARLAND ST 2019-11-10 18:13:37.263 DISTURBANCE
19-1101525 1200 WOODSIDE DR 2019-11-10 18:08:20.703 ARMED SUBJECT
19-1101524 19-12494 475 ROBINS ST 2019-11-10 18:05:53.207 DISTURBANCE
19-1101523 19-12496 504 E OAK ST 2019-11-10 18:04:09.680 ACCIDENT - HIT AND RUN
19-1101521 530 S DONAGHEY AV 2019-11-10 17:35:37.193 MISSING PERSON
19-1101520 815 E OAK ST 2019-11-10 17:22:57.813 CIVIL MATTER
19-1101519 1125 MORNINGSIDE DR 2019-11-10 17:09:22.003 FOUND PROPERTY
19-1101516 1895 VILLAGE COMMONS DR 2019-11-10 16:53:29.563 BREAKING OR ENTERING
19-1101515 1700 MILL ST 2019-11-10 16:15:57.923 BURGLARY
19-1101514 675 AMITY RD 2019-11-10 15:58:47.797 DISTURBANCE
19-1101513 865 CROSSPOINT RD 2019-11-10 15:19:27.070 SUSPICIOUS VEHICLE
19-1101511 19-12492 1605 SWEETSPIRE DR 2019-11-10 15:04:29.530 BREAKING OR ENTERING
19-1101510 522 1ST AV 2019-11-10 14:58:33.223 DISTURBANCE
19-1101509 19-12491 430 2ND AV 2019-11-10 14:42:40.190 COMPUTER CRIMES
19-1101508 19-12490 1155 SKYLINE DR 2019-11-10 14:42:34.457 ACCIDENT - PRIVATE PROPERTY
19-1101507 911 OAK ST 2019-11-10 14:37:31.933 ALARM
19-1101505 122 I40WB 2019-11-10 13:49:59.430 CHECK ON THE WELFARE
19-1101504 3955 CIRRUS DR 2019-11-10 13:39:36.063 ATTEMPT TO CONTACT
19-1101503 260 SALEM RD 2019-11-10 13:33:25.963 CHECK ON THE WELFARE
19-1101502 19-12489 2985 BILLY JACK DR 2019-11-10 13:28:17.317 THEFT OF PROPERTY
19-1101501 1895 VILLAGE COMMONS DR 2019-11-10 13:23:33.293 BREAKING OR ENTERING
19-1101500 3185 STIMPLE DR 2019-11-10 13:20:29.973 CHECKING BUILDING
19-1101499 19-12487 1601 TYLER ST 2019-11-10 13:19:48.990 ACCIDENT - PROPERTY DAMAGE
19-1101498 1105 PRAIRIE ST 2019-11-10 13:18:45.200 ATTEMPT TO CONTACT
19-1101496 19-12488 1250 S AMITY RD 2019-11-10 12:54:45.260 FOUND PROPERTY
19-1101495 19-12486 2370 SANDERS ST 2019-11-10 12:49:38.430 THEFT OF PROPERTY
19-1101494 215 SKYLINE DR 2019-11-10 12:40:29.613 SUPPLEMENT REPORT CALL
19-1101493 526 DAVIS ST 2019-11-10 12:40:07.540 FIRE DEPT ASSIST
19-1101491 816 E OAK ST 2019-11-10 12:35:25.790 TRESPASSING
19-1101489 1430 GRAYBEARD DR 2019-11-10 12:26:06.933 BREAKING OR ENTERING
19-1101488 19-12485 650 SKYLINE DR 2019-11-10 12:07:24.700 ACCIDENT - PROPERTY DAMAGE
19-1101485 3095 DAVE WARD DR 2019-11-10 11:56:22.610 CHECKING VEHICLE
19-1101482 19-12484 1750 VILLAGE COMMONS DR 2019-11-10 11:30:14.407 BREAKING OR ENTERING
19-1101480 1105 PRAIRIE ST 2019-11-10 11:15:49.293 ATTEMPT TO CONTACT
19-1101477 1105 PRAIRIE ST 2019-11-10 10:53:00.317 CITIZEN ASSIST
19-1101476 2915 ST CHARLES DR 2019-11-10 10:41:02.240 ALARM
19-1101475 19-12483 1985 RICH SMITH LN 2019-11-10 10:30:29.440 THEFT OF PROPERTY
19-1101474 19-12482 1506 PRINCE ST 2019-11-10 10:18:39.177 CITIZEN ASSIST
19-1101472 107 S BARIDON ST 2019-11-10 09:32:18.350 CIVIL MATTER
19-1101471 20 KINLEY DR 2019-11-10 09:17:39.290 RECKLESS DRIVER
19-1101470 2385 DAHLIA 2019-11-10 09:15:23.923 DOMESTIC DISTURBANCE
19-1101468 103 OAK ST 2019-11-10 08:00:17.067 CITIZEN ASSIST
19-1101466 19-12481 1510 ARDEN LN 2019-11-10 07:22:12.763 BREAKING OR ENTERING
19-1101464 475 ROBINS ST 2019-11-10 07:12:21.717 LOUD NOISE-MUSIC
19-1101463 506 OAK ST 2019-11-10 06:50:05.700 ALARM
19-1101462 780 MILAM DR 2019-11-10 04:48:38.207 DOMESTIC DISTURBANCE
19-1101461 1310 DAVE WARD DR 2019-11-10 03:37:53.850 CITIZEN ASSIST
19-1101460 701 4TH AV 2019-11-10 03:36:16.740 DOMESTIC DISTURBANCE
19-1101459 116 S HARKRIDER DR 2019-11-10 03:08:05.297 CHECKING VEHICLE
19-1101457 701 4TH AV 2019-11-10 02:48:54.087 DOMESTIC DISTURBANCE
19-1101456 810 MUSEUM RD 2019-11-10 02:47:31.533 TRESPASSING
19-1101455 475 ROBINS ST 2019-11-10 02:46:15.740 CHECK ON THE WELFARE
19-1101454 363 DONAGHEY AV 2019-11-10 02:26:41.550 CHECK ON THE WELFARE
19-1101452 2102 BRUCE ST 2019-11-10 01:55:57.590 DISTURBANCE
19-1101450 810 MUSEUM RD 2019-11-10 01:14:20.143 TRESPASSING
19-1101447 4101 PRINCE ST 2019-11-10 00:59:05.077 RECKLESS DRIVER
19-1101445 530 S DONAGHEY AV 2019-11-10 00:43:52.920 LOUD NOISE-MUSIC
19-1101443 1601 HOGAN LN 2019-11-10 00:10:24.860 DOMESTIC DISTURBANCE
19-1101442 1410 ARAPAHO TRL 2019-11-09 23:52:09.333 LOUD NOISE-MUSIC
19-1101440 2120 MAPLE RIDGE CIR 2019-11-09 23:36:38.857 ALARM
19-1101438 19-12479 215 SKYLINE DR 2019-11-09 23:15:59.610 THEFT OF PROPERTY
19-1101437 19-12478 500 SOUTH GERMAN LN 2019-11-09 23:05:47.490 MISDEMEANOR WARRANT SERVICE
19-1101436 1 CADRON SETTLEMENT PARK RD 2019-11-09 23:01:00.650 CHECKING BUILDING
19-1101435 816 S DONAGHEY AV 2019-11-09 22:58:17.587 TRAFFIC PROBLEM-CONTROL
19-1101434 19-12477 500 SOUTH GERMAN LN 2019-11-09 22:53:40.317 MISDEMEANOR WARRANT SERVICE
19-1101433 418 ANGUS ST 2019-11-09 22:52:27.020 LOUD NOISE-MUSIC
19-1101431 23 ROSANNE DR 2019-11-09 22:45:09.367 BARKING DOG COMPLAINT
19-1101430 1305 TONY CIR 2019-11-09 22:42:44.910 CHECK ON THE WELFARE
19-1101429 2211 BROADVIEW AV 2019-11-09 22:05:36.950 LOUD NOISE-MUSIC
19-1101428 1014 HARKRIDER ST 2019-11-09 21:59:49.610 ACCIDENT - PROPERTY DAMAGE
19-1101427 1621 CHERRY ST 2019-11-09 21:57:56.440 UNKNOWN TROUBLE
19-1101425 1645 HOSTA 2019-11-09 21:50:21.700 SUSPICIOUS VEHICLE
19-1101422 19-12475 2900 PRINCE ST 2019-11-09 21:28:02.363 CHECKING VEHICLE
19-1101421 1700 DONAGHEY AV 2019-11-09 21:21:05.260 STALLED VEHICLE
19-1101420 19-12474 1111 E OAK ST 2019-11-09 21:15:55.993 ACCIDENT - PRIVATE PROPERTY
19-1101419 2401 CHRISTINA LN 2019-11-09 21:12:12.053 CIVIL MATTER
19-1101418 1235 FRENCH DR 2019-11-09 20:58:48.590 SHOTS FIRED
19-1101417 380 HARKRIDER ST 2019-11-09 20:57:11.060 CHECKING VEHICLE
19-1101416 19-12473 13 SEDGEFIELD DR 2019-11-09 20:46:16.977 UNAUTHORIZED USE OF MOTOR VEHICLE
19-1101415 2401 CHRISTINA LN 2019-11-09 20:44:33.107 CIVIL MATTER
19-1101402 19-12471 600 SKYLINE DR 2019-11-09 19:27:20.483 ACCIDENT - PERSONAL INJURY
19-1101401 1203 CLIFTON ST 2019-11-09 19:26:41.770 ALARM
19-1101400 501 ELSINGER BLVD 2019-11-09 19:16:40.597 RECKLESS DRIVER
19-1101399 2850 PRINCE ST 2019-11-09 19:14:28.160 STALLED VEHICLE
19-1101398 1900 HOGAN LN 2019-11-09 19:02:18.973 CHECK ON THE WELFARE
19-1101397 1250 S AMITY RD 2019-11-09 18:47:52.117 FIRE-SUSPICIOUS PACKAGE
19-1101396 300 S DONAGHEY AV 2019-11-09 18:41:52.617 LOUD NOISE-MUSIC
19-1101393 19-12470 302 S SALEM RD 2019-11-09 18:17:28.443 ACCIDENT - PROPERTY DAMAGE
19-1101392 526 DAVIS ST 2019-11-09 18:13:28.240 CHECK ON THE WELFARE
19-1101390 2401 CHRISTINA LN 2019-11-09 18:02:30.633 REPOSSESSION
19-1101389 1105 PRAIRIE ST 2019-11-09 17:39:01.477 ATTEMPT TO CONTACT
19-1101388 321 W 19TH 2019-11-09 17:35:41.537 ACCIDENT - PRIVATE PROPERTY
19-1101387 19-12469 1099 S EAST GERMAN LN 2019-11-09 17:35:30.830 ACCIDENT - PERSONAL INJURY
19-1101386 4055 GLENWOOD DR 2019-11-09 17:28:04.847 SUPPLEMENT REPORT CALL
19-1101385 2040 HICKORY ST 2019-11-09 17:21:13.527 FIRE DEPT ASSIST
19-1101384 19-12468 1555 EXCHANGE AV 2019-11-09 17:20:41.693 FOUND PROPERTY
19-1101382 867 FENDLEY DR 2019-11-09 17:17:52.217 UNKNOWN TROUBLE
19-1101380 2350 SANDERS ST 2019-11-09 16:57:57.653 DISTURBANCE
19-1101379 19-12467 605 1ST AV 2019-11-09 16:55:51.750 BURGLARY
19-1101377 315 RADCLIFFE DR 2019-11-09 16:27:58.020 CITIZEN ASSIST
19-1101374 19-12465 526 DAVIS ST 2019-11-09 16:09:15.793 FIRE DEPT ASSIST
19-1101373 19-12466 2003 DONAGHEY AV 2019-11-09 16:08:26.140 BURGLARY
19-1101371 1620 MIDDLE RD 2019-11-09 15:59:01.273 AGENCY ASSIST
19-1101370 19-12463 4101 PRINCE ST 2019-11-09 15:55:25.620 ACCIDENT - PROPERTY DAMAGE
19-1101369 19-12462 1105 SKYLINE DR 2019-11-09 15:52:11.277 ACCIDENT - PRIVATE PROPERTY
19-1101368 1360 ROBINS ST 2019-11-09 15:43:41.830 CHECK ON THE WELFARE
19-1101364 19-12464 2302 COLLEGE AV 2019-11-09 15:20:44.800 SUPPLEMENT REPORT CALL
19-1101363 19 TIMOTHY LN 2019-11-09 15:12:45.413 PARKING VIOLATION
19-1101362 2019-11-09 15:10:38.117 ATTEMPT TO CONTACT
19-1101361 19-12461 955 E OAK ST 2019-11-09 15:05:23.930 DOMESTIC DISTURBANCE
19-1101360 1900 TYLER ST 2019-11-09 14:38:50.427 CHECK ON THE WELFARE
19-1101359 801 ELSINGER BLVD 2019-11-09 14:34:27.437 LOG VEHICLE
19-1101358 1845 ARDEN LN 2019-11-09 14:31:58.897 BURGLARY
19-1101356 801 ELSINGER BLVD 2019-11-09 14:11:24.140 CHECK ON THE WELFARE
19-1101355 1325 OLD MORRILTON HWY 2019-11-09 13:51:35.693 SUPPLEMENT REPORT CALL
19-1101354 1209 E OAK ST 2019-11-09 13:39:45.597 SUSPICIOUS ACTIVITY
19-1101353 1810 DRURY LN 2019-11-09 13:31:41.487 ALARM - HOLD UP or PANIC
19-1101351 19-12460 3100 IRBY DR 2019-11-09 13:24:43.933 FIRE DEPT ASSIST
19-1101349 1751 OLD MORRILTON HWY 2019-11-09 13:14:35.827 STALLED VEHICLE
19-1101348 823 OAK ST 2019-11-09 12:59:10.983 CRIMINAL MISCHIEF
19-1101347 801 HOGAN LN 2019-11-09 12:44:31.330 CIVIL MATTER
19-1101345 19-12457 2310 ROBINSON AV 2019-11-09 12:42:11.743 SUSPICIOUS ACTIVITY
19-1101344 19-12456 3645 ASPEN CIR 2019-11-09 12:19:08.987 THEFT OF PROPERTY
19-1101343 2500 DAVE WARD DR 2019-11-09 12:17:09.840 CHECK ON THE WELFARE
19-1101342 19-12454 1325 OLD MORRILTON HWY 2019-11-09 12:06:16.193 THEFT OF VEHICLE
19-1101340 19-12455 1284 S AMITY RD 2019-11-09 11:58:55.080 INDECENT EXPOSURE
19-1101337 4510 HAWKINS DR 2019-11-09 11:08:11.737 CIVIL MATTER
19-1101336 19-12453 2019-11-09 11:02:06.143 MISDEMEANOR WARRANT SERVICE
19-1101330 101 OAK ST 2019-11-09 09:53:17.643 FRAUD
19-1101329 2335 REMINGTON RD 2019-11-09 09:49:18.467 SUPPLEMENT REPORT CALL
19-1101327 109 GRIFFITH ST 2019-11-09 09:35:57.173 CHECK ON THE WELFARE
19-1101326 530 S DONAGHEY AV 2019-11-09 09:15:20.520 PARKING VIOLATION
19-1101323 1645 GARDENIA 2019-11-09 08:18:29.523 ALARM
19-1101322 827 HOGAN LN 2019-11-09 08:10:51.903 ALARM
19-1101321 19-12450 109 GRIFFITH ST 2019-11-09 07:48:13.597 DOMESTIC DISTURBANCE
19-1101320 710 S COUNTRY CLUB RD 2019-11-09 07:46:39.017 ALARM
19-1101318 19-12449 2410 O'BRYANT ST 2019-11-09 07:38:04.810 FIRE DEPT ASSIST
19-1101316 1201 DONAGHEY AV 2019-11-09 07:15:39.620 RECKLESS DRIVER
19-1101315 620 ELSINGER BLVD 2019-11-09 06:23:03.950 AUDIBLE ALARM
19-1101314 100 GRANDVIEW HEIGHTS DR 2019-11-09 06:12:31.167 STALLED VEHICLE
19-1101311 705 SPRUCE ST 2019-11-09 04:28:54.157 DOMESTIC DISTURBANCE
19-1101310 19-12448 500 SOUTH GERMAN LN 2019-11-09 03:46:48.973 MISDEMEANOR WARRANT SERVICE
19-1101309 1335 S DONAGHEY AV 2019-11-09 03:37:37.300 CHECKING BUILDING
19-1101308 5240 LOST CANYON DR 2019-11-09 02:28:59.377 ALARM
19-1101305 2101 COLLEGE AV 2019-11-09 02:05:12.303 CHECK ON THE WELFARE
19-1101304 1775 OLD MORRILTON HWY 2019-11-09 01:52:13.723 CHECK ON THE WELFARE
19-1101303 1360 BRUCE ST 2019-11-09 01:37:48.307 STALLED VEHICLE
19-1101302 2901 COLLEGE AV 2019-11-09 01:04:59.097 TRAFFIC PROBLEM-CONTROL
19-1101300 901 SIEBENMORGEN RD 2019-11-09 00:28:51.440 LOUD NOISE-MUSIC
19-1101295 2730 DAVE WARD DR 2019-11-08 23:48:32.533 LOUD NOISE-MUSIC
19-1101293 600 CLUB LN 2019-11-08 23:25:09.317 ALARM
19-1101292 2050 DAVE WARD DR 2019-11-08 23:24:04.583 CHECKING PERSON
19-1101291 2950 BECKY RD 2019-11-08 23:22:36.007 FIRE DEPT ASSIST
19-1101289 301 CLUB LN 2019-11-08 23:09:59.400 SUSPICIOUS PERSON
19-1101288 855 SALEM RD 2019-11-08 23:09:10.840 CHECKING VEHICLE
19-1101287 19-12444 4055 GLENWOOD DR 2019-11-08 23:07:30.697 THEFT OF PROPERTY
19-1101285 640 ELSINGER BLVD 2019-11-08 22:59:24.983 CHECKING VEHICLE
19-1101284 1 CADRON SETTLEMENT PARK RD 2019-11-08 22:56:11.160 CHECKING BUILDING
19-1101282 2310 ROBINSON AV 2019-11-08 22:42:52.917 CHECKING VEHICLE
19-1101281 600 ELSINGER BLVD 2019-11-08 22:36:00.680 CHECKING VEHICLE
19-1101279 475 ROBINS ST 2019-11-08 22:21:27.790 LOUD NOISE-MUSIC
19-1101278 400 POLK ST 2019-11-08 22:19:14.883 ATTEMPT TO CONTACT
19-1101277 19-12443 500 SOUTH GERMAN LN 2019-11-08 22:17:51.020 MISDEMEANOR WARRANT SERVICE
19-1101276 919 DONAGHEY AV 2019-11-08 22:02:06.723 SUSPICIOUS VEHICLE
19-1101275 107 S BARIDON ST 2019-11-08 21:56:02.710 BATTERY REPORT
19-1101274 19-12442 500 SOUTH GERMAN LN 2019-11-08 21:42:57.050 MISDEMEANOR WARRANT SERVICE
19-1101273 1520 OLD MORRILTON HWY 2019-11-08 21:42:44.713 SUSPICIOUS ACTIVITY
19-1101271 19-12441 7 NORTHWOOD DR 2019-11-08 21:34:18.927 HARASSMENT
19-1101269 19-12440 511 1ST ST 2019-11-08 21:26:28.027 THEFT OF PROPERTY
19-1101265 1020 TRILLIUM DR 2019-11-08 21:01:23.077 LOUD NOISE-MUSIC
19-1101264 1020 TRILLIUM DR 2019-11-08 20:48:30.697 LOUD NOISE-MUSIC
19-1101263 563 ELSINGER BLVD 2019-11-08 20:44:06.570 ALARM
19-1101262 19-12439 1405 DAVE WARD DR 2019-11-08 20:42:03.423 ACCIDENT - PRIVATE PROPERTY
19-1101261 10 LAURA LN 2019-11-08 20:33:54.483 SUSPICIOUS PERSON
19-1101260 7 NORTHWOOD DR 2019-11-08 20:33:03.647 DISTURBANCE
19-1101259 1602 ROBINS ST 2019-11-08 20:23:10.793 CHECKING PERSON
19-1101258 1901 HOGAN LN 2019-11-08 20:23:02.390 CIVIL STAND BY
19-1101256 1405 JOYNER DR 2019-11-08 19:54:37.260 SUSPICIOUS ACTIVITY
19-1101251 3170 PEBBLE BEACH DR 2019-11-08 19:33:46.470 SUSPICIOUS ACTIVITY
19-1101249 27 WOODLAWN DR 2019-11-08 19:09:39.897 SUPPLEMENT REPORT CALL
19-1101246 646 S HARKRIDER DR 2019-11-08 18:54:17.967 CHECK ON THE WELFARE
19-1101245 2455 WASHINGTON AV 2019-11-08 18:33:51.123 CITIZEN ASSIST
19-1101244 705 CHERUB DR 2019-11-08 18:20:42.797 TERRORISTIC THREATENING
19-1101243 1500 HARKRIDER ST 2019-11-08 18:18:17.940 ATTEMPT TO CONTACT
19-1101242 150 E OAK ST 2019-11-08 18:12:59.680 CHECK ON THE WELFARE
19-1101240 2455 WASHINGTON AV 2019-11-08 18:07:10.457 ALARM
19-1101239 2815 PEBBLE BEACH DR 2019-11-08 18:02:20.650 PARKING VIOLATION
19-1101238 2100 CALDWELL ST 2019-11-08 17:51:59.177 TRAFFIC PROBLEM-CONTROL
19-1101237 19-12438 301 DONAGHEY AV 2019-11-08 17:45:46.643 ACCIDENT - PROPERTY DAMAGE
19-1101236 19-12437 2510 PRINCE ST 2019-11-08 17:43:58.910 TERRORISTIC THREATENING
19-1101235 19-12436 2799 SALEM RD 2019-11-08 17:22:58.307 ACCIDENT - PROPERTY DAMAGE
19-1101234 3100 SALEM RD 2019-11-08 17:22:02.177 STALLED VEHICLE
19-1101232 480 EXCHANGE AV 2019-11-08 17:08:23.520 FIRE DEPT ASSIST
19-1101231 1599 S HARKRIDER DR 2019-11-08 17:07:04.483 RECKLESS DRIVER
19-1101230 608 4TH ST 2019-11-08 17:06:38.260 ATTEMPT TO CONTACT
19-1101226 19-12434 2300 PRINCE ST 2019-11-08 16:30:32.413 RUNAWAY
19-1101224 19-12431 202 S DONAGHEY AV 2019-11-08 16:04:28.650 ACCIDENT - PROPERTY DAMAGE
19-1101223 1612 HARTJE LN 2019-11-08 15:59:41.457 SUPPLEMENT REPORT CALL
19-1101222 19-12432 2510 PRINCE ST 2019-11-08 15:55:51.463 FIGHT
19-1101221 19-12430 1950 FAVRE LN 2019-11-08 15:50:29.623 FIGHT
19-1101215 2120 DUNCAN ST 2019-11-08 15:38:44.110 CRIMINAL MISCHIEF
19-1101212 1200 DAVE WARD DR 2019-11-08 15:03:17.763 DOMESTIC DISTURBANCE
19-1101211 1287 SALEM RD 2019-11-08 14:59:17.063 REPOSSESSION
19-1101210 19-12428 1309 MAIN ST 2019-11-08 14:48:20.237 FORGERY
19-1101209 19-12429 1405 S DONAGHEY AV 2019-11-08 14:46:04.563 ROBBERY
19-1101208 1999 AMELIA DR 2019-11-08 14:40:29.283 ACCIDENT - PROPERTY DAMAGE
19-1101207 19-12427 2925 PRINCE ST 2019-11-08 14:39:39.883 FORGERY
19-1101203 19-12425 736 3RD AV 2019-11-08 13:48:27.547 CHECKING VEHICLE
19-1101198 19-12424 23 REBECCA LN 2019-11-08 13:33:33.823 ACCIDENT - PROPERTY DAMAGE
19-1101196 3800 DAVE WARD DR 2019-11-08 13:19:43.183 DOMESTIC DISTURBANCE
19-1101193 2501 DAVE WARD DR 2019-11-08 13:04:01.490 CHECKING PERSON
19-1101191 19-12422 218 WILLOW ST 2019-11-08 12:52:33.283 AGENCY ASSIST
19-1101190 207 WILLOW ST 2019-11-08 12:46:12.497 SUSPICIOUS ACTIVITY
19-1101189 7 MOCKINGBIRD LN 2019-11-08 12:41:35.523 LOST CHILD-FOUND CHILD
19-1101188 1068 MARKHAM ST 2019-11-08 12:37:50.033 CHECKING PERSON
19-1101187 1629 SOUTH BLVD 2019-11-08 12:32:15.370 CHECK ON THE WELFARE
19-1101185 309 CLUB LN 2019-11-08 12:23:45.160 CHECK ON THE WELFARE
19-1101184 1700 SOUTH BLVD 2019-11-08 12:16:12.750 SUSPICIOUS PERSON
19-1101181 608 4TH ST 2019-11-08 12:04:54.300 FELONY WARRANT SERVICE
19-1101179 3075 SASSY RD 2019-11-08 11:56:18.673 ATTEMPT TO CONTACT
19-1101178 716 OAK ST 2019-11-08 11:54:26.307 ATTEMPT TO CONTACT
19-1101177 2840 DAVE WARD DR 2019-11-08 11:39:15.177 SUPPLEMENT REPORT CALL
19-1101174 19-12421 120 E OAK ST 2019-11-08 11:09:31.740 FOUND PROPERTY
19-1101173 19-12420 2150 HARKRIDER ST 2019-11-08 11:02:32.683 FRAUD
19-1101172 19-12419 600 ELSINGER BLVD 2019-11-08 10:52:40.280 THEFT OF PROPERTY
19-1101171 19-12418 2560 DONAGHEY AV 2019-11-08 10:33:05.490 THEFT OF PROPERTY
19-1101168 499 PRINCESTON DR 2019-11-08 10:16:14.020 ATTEMPT TO CONTACT
19-1101166 31 HALLOUS ST 2019-11-08 10:09:00.357 ATTEMPT TO CONTACT
19-1101162 19-12417 1909 TYLER ST 2019-11-08 09:45:17.810 NO CONTACT ORDER VIOLATION
19-1101161 1620 MIDDLE RD 2019-11-08 09:40:25.090 ATTEMPT TO CONTACT
19-1101159 3700 DAVE WARD DR 2019-11-08 09:15:08.247 STALLED VEHICLE
19-1101158 19-12413 915 REYNOLDS AV 2019-11-08 09:11:15.330 THEFT OF PROPERTY
19-1101156 1735 JACKSON DR 2019-11-08 09:05:57.573 ALARM
19-1101153 19-12414 3185 STIMPLE DR 2019-11-08 08:58:19.527 CHECK ON THE WELFARE
19-1101151 155 E SKYLINE DR 2019-11-08 08:45:07.907 AGENCY ASSIST
19-1101149 19-12412 1417 HARDY ST 2019-11-08 08:23:07.387 TERRORISTIC THREATENING
19-1101148 1001 MUSEUM RD 2019-11-08 08:22:57.933 CHECKING VEHICLE
19-1101146 19-12411 1500 ARDEN LN 2019-11-08 08:00:51.247 ACCIDENT - PERSONAL INJURY
19-1101145 19-12410 705 CLUB LN 2019-11-08 07:52:10.087 ACCIDENT - PROPERTY DAMAGE
19-1101140 2113 HAIRSTON AV 2019-11-08 07:03:24.243 ALARM
19-1101139 1480 STRANDLUND DR 2019-11-08 05:41:38.640 PROWLER
19-1101138 810 CRAIN DR 2019-11-08 04:48:31.940 ALARM
19-1101137 2302 COLLEGE AV 2019-11-08 03:34:38.783 TERRORISTIC THREATENING
19-1101136 1601 HOGAN LN 2019-11-08 03:23:50.220 CHECK ON THE WELFARE
19-1101135 545 E DAVE WARD DR 2019-11-08 03:02:50.483 CHECK ON THE WELFARE
19-1101133 620 ELSINGER BLVD 2019-11-08 01:55:53.807 ALARM
19-1101132 920 SCHERMAN OAKS CIR 2019-11-08 00:57:37.700 LOUD NOISE-MUSIC
19-1101131 19-12409 1985 RICH SMITH LN 2019-11-08 00:29:53.607 KIDNAPPING
19-1101129 3170 PEBBLE BEACH DR 2019-11-08 00:13:03.510 SUSPICIOUS PERSON
19-1101127 1701 HAIRSTON AV 2019-11-07 23:52:01.177 LOUD NOISE-MUSIC
19-1101125 3180 PEBBLE BEACH DR 2019-11-07 23:34:02.090 LOUD NOISE-MUSIC
19-1101124 2135 RAINTREE DR 2019-11-07 23:18:38.967 HARASSMENT
19-1101123 955 SOUTH GERMAN LN 2019-11-07 23:13:49.473 CHECKING PERSON
19-1101122 612 GARLAND ST 2019-11-07 23:13:09.047 ALARM
19-1101121 1005 SOUTH GERMAN LN 2019-11-07 22:56:30.217 SUSPICIOUS PERSON
19-1101119 19-12408 207 WILLOW ST 2019-11-07 22:31:38.080 BREAKING OR ENTERING
19-1101117 1140 HARKRIDER ST 2019-11-07 22:16:03.960 CHECKING PERSON
19-1101116 545 SKYLINE DR 2019-11-07 22:01:09.323 SUPPLEMENT REPORT CALL
19-1101115 2730 DAVE WARD DR 2019-11-07 22:01:03.630 LOUD NOISE-MUSIC
19-1101114 400 6TH ST 2019-11-07 21:56:14.507 ATTEMPT TO CONTACT
19-1101113 601 DAVE WARD DR 2019-11-07 21:54:56.743 ATTEMPT TO CONTACT
19-1101111 365 FARRIS RD 2019-11-07 21:35:40.403 HARASSMENT
19-1101110 2840 DAVE WARD DR 2019-11-07 21:27:30.060 CHECKING PERSON
19-1101109 506 OAK ST 2019-11-07 21:22:31.283 ALARM
19-1101108 19-12406 2500 DAVE WARD DR 2019-11-07 21:13:44.060 ACCIDENT - PROPERTY DAMAGE
19-1101107 19-12405 545 SKYLINE DR 2019-11-07 20:48:16.203 LOST PROPERTY
19-1101106 601 S COUNTRY CLUB RD 2019-11-07 20:45:39.717 STALLED VEHICLE
19-1101105 19-12404 2099 SALEM RD 2019-11-07 20:27:24.117 ACCIDENT - PERSONAL INJURY
19-1101104 19-12402 2915 DAVE WARD DR 2019-11-07 20:15:30.597 FRAUD
19-1101103 500 SOUTH GERMAN LN 2019-11-07 19:59:14.413 ATTEMPT TO CONTACT
19-1101101 1955 KEATHLEY DR 2019-11-07 19:26:05.180 LOUD NOISE-MUSIC
19-1101100 19-12403 2840 DAVE WARD DR 2019-11-07 19:19:13.980 BATTERY REPORT
19-1101096 19-12401 401 2ND ST 2019-11-07 18:53:01.517 THEFT OF PROPERTY
19-1101095 800 S DONAGHEY AV 2019-11-07 18:45:35.577 RECKLESS DRIVER
19-1101094 2560 DONAGHEY AV 2019-11-07 18:38:07.000 SHOPLIFTING
19-1101092 1220 BIRD SONG DR 2019-11-07 18:23:36.937 SUPPLEMENT REPORT CALL
19-1101091 1155 SKYLINE DR 2019-11-07 18:00:43.563 SHOPLIFTING
19-1101090 1915 WASHINGTON AV 2019-11-07 17:58:27.857 DISTURBANCE
19-1101089 1205 DAVE WARD DR 2019-11-07 17:57:17.340 TRESPASSING
19-1101088 580 E DAVE WARD DR 2019-11-07 17:53:49.400 ACCIDENT - PROPERTY DAMAGE
19-1101087 19-12399 2300 PRINCE ST 2019-11-07 17:51:05.800 ACCIDENT - PRIVATE PROPERTY
19-1101086 19-12400 215 FARRIS RD 2019-11-07 17:39:16.883 ACCIDENT - PRIVATE PROPERTY
19-1101085 100 SKYLINE DR 2019-11-07 17:29:56.613 SUPPLEMENT REPORT CALL
19-1101084 350 GRANDVIEW HEIGHTS DR 2019-11-07 17:19:23.123 BARKING DOG COMPLAINT
19-1101083 19-12397 550 E DAVE WARD DR 2019-11-07 17:17:34.517 ACCIDENT - PROPERTY DAMAGE
19-1101082 19-12398 1120 EAST GERMAN LN 2019-11-07 17:01:53.757 SHOPLIFTING
19-1101080 1620 MIDDLE RD 2019-11-07 16:59:26.533 CHECK ON THE WELFARE
19-1101079 19-12396 100 SKYLINE DR 2019-11-07 16:57:45.633 ACCIDENT - PROPERTY DAMAGE
19-1101078 19-12395 855 SALEM RD 2019-11-07 16:51:56.623 ACCIDENT - PRIVATE PROPERTY
19-1101077 126 OAK ST 2019-11-07 16:51:55.107 HARASSMENT
19-1101076 2004 MICHELLE CIR 2019-11-07 16:50:51.837 ALARM
19-1101075 475 ROBINS ST 2019-11-07 16:46:22.143 ATTEMPT TO CONTACT
19-1101074 2080 BROADVIEW AV 2019-11-07 16:36:26.253 CITIZEN ASSIST
19-1101073 19-12394 401 2ND ST 2019-11-07 16:31:19.823 DOMESTIC DISTURBANCE
19-1101071 2015 RICH SMITH LN 2019-11-07 16:26:58.910 911 HANGUP CALL
19-1101070 1800 LUCILLE ST 2019-11-07 16:22:29.667 SUSPICIOUS PERSON
19-1101068 475 ROBINS ST 2019-11-07 16:05:20.620 AGENCY ASSIST
19-1101064 1619 WESTLAKE DR 2019-11-07 15:58:47.657 ATTEMPT TO CONTACT
19-1101062 2019-11-07 15:49:34.770 ATTEMPT TO CONTACT
19-1101061 1617 WESTLAKE DR 2019-11-07 15:49:26.863 SERVING SUBPOENA
19-1101060 19-12393 101 OAK ST 2019-11-07 15:34:27.313 FRAUD
19-1101059 1003 MUSEUM RD 2019-11-07 15:34:05.790 SUPPLEMENT REPORT CALL
19-1101058 19-12391 1390 OLD MORRILTON HWY 2019-11-07 15:27:09.113 FRAUD
19-1101057 19-12392 3900 DAVE WARD DR 2019-11-07 15:26:53.563 THEFT OF PROPERTY
19-1101056 1930 DONAGHEY AV 2019-11-07 15:25:09.490 THEFT OF PROPERTY
19-1101055 625 TOMMY LEWIS DR 2019-11-07 15:22:39.097 911 HANGUP CALL
19-1101053 375 MONROE ST 2019-11-07 14:59:56.730 CIVIL STAND BY
19-1101052 1155 SKYLINE DR 2019-11-07 14:45:39.500 ACCIDENT - PRIVATE PROPERTY
19-1101050 19-12388 801 ELSINGER BLVD 2019-11-07 14:21:59.810 SHOPLIFTING
19-1101049 300 DAVIS ST 2019-11-07 14:15:17.713 ATTEMPT TO CONTACT
19-1101046 1155 SKYLINE DR 2019-11-07 13:32:45.467 LOST-STOLEN LICENSE PLATE
19-1101045 2320 MEADOWLAKE RD 2019-11-07 13:24:37.957 TRESPASSING
19-1101044 1171 E OAK ST 2019-11-07 13:16:14.903 RECKLESS DRIVER
19-1101043 101 HARKRIDER ST 2019-11-07 13:07:15.783 CHECK ON THE WELFARE
19-1101042 19-12386 867 FENDLEY DR 2019-11-07 13:03:05.080 ARMED SUBJECT
19-1101041 855 E OAK ST 2019-11-07 13:02:42.343 ALARM
19-1101039 1520 CHINOOK DR 2019-11-07 12:57:46.950 CHECK ON THE WELFARE
19-1101038 25 BERNARD DR 2019-11-07 12:41:57.780 DISTURBANCE
19-1101037 8 BERNARD DR 2019-11-07 12:36:07.660 CHECK ON THE WELFARE
19-1101036 19-12383 2205 DAVE WARD DR 2019-11-07 12:15:33.077 ACCIDENT - PROPERTY DAMAGE
19-1101035 19-12382 1501 DONAGHEY AV 2019-11-07 12:15:18.867 ACCIDENT - PERSONAL INJURY
19-1101034 823 OAK ST 2019-11-07 12:04:08.173 ATTEMPT TO CONTACT
19-1101033 19-12384 1220 BIRD SONG DR 2019-11-07 11:58:57.727 BURGLARY
19-1101030 245 FARRIS RD 2019-11-07 11:49:35.887 VEHICLE TOW
19-1101029 19-12381 1209 E OAK ST 2019-11-07 11:45:08.150 ACCIDENT - HIT AND RUN
19-1101024 1105 SKYLINE DR 2019-11-07 11:26:20.417 CIVIL MATTER
19-1101023 1405 JOYNER DR 2019-11-07 11:16:04.140 911 HANGUP CALL
19-1101021 19-12380 1485 OLD MORRILTON HWY 2019-11-07 11:08:51.440 THEFT OF PROPERTY
19-1101020 220 E OAK ST 2019-11-07 10:59:10.877 SUSPICIOUS PERSON
19-1101015 19-12379 915 FAULKNER ST 2019-11-07 10:23:52.270 LOST-STOLEN LICENSE PLATE
19-1101014 400 ELSINGER BLVD 2019-11-07 10:21:50.273 STALLED VEHICLE
19-1101012 1003 MUSEUM RD 2019-11-07 10:13:17.837 SUPPLEMENT REPORT CALL
19-1101011 621 OAK ST 2019-11-07 10:02:57.073 SUSPICIOUS VEHICLE
19-1101009 1 EAGLE WING DR 2019-11-07 09:50:43.057 ALARM
19-1101008 2501 DAVE WARD DR 2019-11-07 09:42:57.773 STALLED VEHICLE
19-1101007 19-12378 375 MONROE ST 2019-11-07 09:39:11.937 SUSPICIOUS VEHICLE
19-1101005 4795 PRINCE ST 2019-11-07 09:34:36.170 ATTEMPT TO CONTACT
19-1101003 3602 OLD MORRILTON HWY 2019-11-07 09:29:08.083 TRAFFIC PROBLEM-CONTROL
19-1101002 2565 MARIE DR 2019-11-07 09:15:43.397 ALARM
19-1101000 1 MEDICAL LN 2019-11-07 09:12:58.160 HARASSING COMMUNICATIONS
19-1100997 1805 PECAN CREEK DR 2019-11-07 09:05:58.063 ALARM
19-1100996 626 4TH AV 2019-11-07 08:59:37.187 SUPPLEMENT REPORT CALL
19-1100993 2310 ROBINSON AV 2019-11-07 08:56:38.233 ATTEMPT TO CONTACT
19-1100992 3 ROSEMOUNT DR 2019-11-07 08:38:46.240 SUPPLEMENT REPORT CALL
19-1100990 19-12375 705 SALEM RD 2019-11-07 08:29:56.983 DISTURBANCE
19-1100989 19-12376 1865 LUCILLE ST 2019-11-07 08:22:08.787 ACCIDENT - PRIVATE PROPERTY
19-1100986 19-12373 801 HOGAN LN 2019-11-07 07:57:46.650 ACCIDENT - HIT AND RUN
19-1100984 19-12372 1106 DONAGHEY AV 2019-11-07 07:52:50.210 ACCIDENT - PROPERTY DAMAGE
19-1100983 705 SALEM RD 2019-11-07 07:52:14.380 DISTURBANCE
19-1100982 475 ROBINS ST 2019-11-07 07:36:50.293 ACCIDENT - PRIVATE PROPERTY
19-1100981 19-12371 815 E OAK ST 2019-11-07 07:00:39.587 FELONY WARRANT SERVICE
19-1100980 99 KINLEY DR 2019-11-07 06:27:11.213 RECKLESS DRIVER
19-1100978 850 OAK ST 2019-11-07 06:11:32.740 CHECK ON THE WELFARE
19-1100977 1055 DAVE WARD DR 2019-11-07 05:57:30.090 911 HANGUP CALL
19-1100975 1002 E OAK ST 2019-11-07 05:04:42.020 TRESPASSING
19-1100974 675 AMITY RD 2019-11-07 04:32:08.397 ALARM
19-1100972 3900 RUPERT DR 2019-11-07 04:11:59.403 REPOSSESSION
19-1100968 675 AMITY RD 2019-11-07 03:12:52.643 ALARM
19-1100966 401 2ND ST 2019-11-07 01:54:15.013 REPOSSESSION
19-1100965 2050 DAVE WARD DR 2019-11-07 00:28:08.810 SUSPICIOUS PERSON
19-1100963 375 MONROE ST 2019-11-06 23:48:59.250 TRESPASSING
19-1100962 740 S SALEM RD 2019-11-06 23:47:41.040 SUSPICIOUS PERSON
19-1100961 2695 DAVE WARD DR 2019-11-06 23:40:17.980 CHECK ON THE WELFARE
19-1100959 1601 DONAGHEY AV 2019-11-06 23:17:54.757 SUSPICIOUS ACTIVITY
19-1100957 126 OAK ST 2019-11-06 23:07:53.370 CHECKING PERSON
19-1100956 300 S DONAGHEY AV 2019-11-06 23:02:51.500 LOUD NOISE-MUSIC
19-1100954 705 MUSEUM RD 2019-11-06 22:45:38.810 SUSPICIOUS PERSON
19-1100953 1068 MARKHAM ST 2019-11-06 22:43:10.567 SUSPICIOUS ACTIVITY
19-1100952 124 I40EB 2019-11-06 22:40:14.870 RECKLESS DRIVER
19-1100951 675 AMITY RD 2019-11-06 22:25:02.270 DISTURBANCE
19-1100950 724 OAK ST 2019-11-06 22:21:57.537 SUSPICIOUS PERSON
19-1100949 19-12370 1621 CHERRY ST 2019-11-06 22:12:12.790 CHECK ON THE WELFARE
19-1100947 2650 DONAGHEY AV 2019-11-06 21:49:30.883 SUSPICIOUS PERSON
19-1100946 414 INGRAM ST 2019-11-06 21:36:38.543 REPOSSESSION
19-1100945 19-12368 513 POLK ST 2019-11-06 21:36:36.387 ARMED SUBJECT
19-1100944 2200 MEADOWLAKE RD 2019-11-06 21:28:35.750 CHECK ON THE WELFARE
19-1100943 21 FAIR OAKS DR 2019-11-06 21:22:19.130 911 HANGUP CALL
19-1100942 19-12367 945 CRAIN DR 2019-11-06 21:22:06.037 ACCIDENT - PRIVATE PROPERTY
19-1100940 19-12365 3320 OLD MORRILTON HWY 2019-11-06 21:12:45.057 DOMESTIC DISTURBANCE
19-1100939 19-12366 3240 STERMER RD 2019-11-06 21:04:06.910 DISTURBANCE
19-1100938 4225 BAY HILL DR 2019-11-06 20:58:13.607 ALARM
19-1100937 2100 CALDWELL ST 2019-11-06 20:55:51.400 AGENCY ASSIST
19-1100936 19-12364 1104 DEER ST 2019-11-06 20:45:13.640 ACCIDENT - PRIVATE PROPERTY
19-1100934 150 S HOGAN LN 2019-11-06 20:34:15.693 ALARM
19-1100932 3 ROSEMOUNT DR 2019-11-06 20:15:01.313 SUPPLEMENT REPORT CALL
19-1100930 705 CHERUB DR 2019-11-06 19:50:47.613 ATTEMPT TO CONTACT
19-1100929 619 SALEM RD 2019-11-06 19:07:14.247 CHECK ON THE WELFARE
19-1100927 129 I40EB 2019-11-06 19:05:40.387 RECKLESS DRIVER
19-1100926 19-12363 1540 ANGELINE DR 2019-11-06 19:04:51.093 BURGLARY
19-1100923 3000 PEBBLE BEACH DR 2019-11-06 19:00:17.520 ATTEMPT TO CONTACT
19-1100921 19-12362 3 ROSEMOUNT DR 2019-11-06 18:37:49.517 BURGLARY
19-1100918 1364 BRUCE ST 2019-11-06 18:12:26.793 ATTEMPT TO CONTACT
19-1100917 1955 KEATHLEY DR 2019-11-06 18:06:55.113 DOMESTIC DISTURBANCE
19-1100916 2300 PRINCE ST 2019-11-06 18:05:56.443 THEFT OF PROPERTY
19-1100914 3165 COLLEGE AV 2019-11-06 17:58:22.500 STALLED VEHICLE
19-1100913 19-12361 511 1ST ST 2019-11-06 17:56:43.333 ATTEMPT TO CONTACT
19-1100912 401 2ND ST 2019-11-06 17:50:59.177 BURGLARY
19-1100911 19-12360 501 ELSINGER BLVD 2019-11-06 17:27:57.147 THEFT OF PROPERTY
19-1100910 605 DAVE WARD DR 2019-11-06 16:58:18.857 STALLED VEHICLE
19-1100909 511 1ST ST 2019-11-06 16:54:42.133 DOMESTIC DISTURBANCE
19-1100906 19-12359 1114 GUM ST 2019-11-06 16:34:16.830 TRESPASSING
19-1100905 3700 DAVE WARD DR 2019-11-06 16:31:40.460 CHECK ON THE WELFARE
19-1100900 1175 MORNINGSIDE DR 2019-11-06 16:07:28.160 TERRORISTIC THREATENING
19-1100897 19-12357 2501 DAVE WARD DR 2019-11-06 16:01:13.853 CRIMINAL MISCHIEF
19-1100895 19-12358 410 ELSINGER BLVD 2019-11-06 15:58:25.480 DOMESTIC DISTURBANCE
19-1100894 19-12356 2050 DAVE WARD DR 2019-11-06 15:43:09.947 ACCIDENT - PRIVATE PROPERTY
19-1100892 1751 OLD MORRILTON HWY 2019-11-06 15:36:50.663 STALLED VEHICLE
19-1100891 2515 W MARTIN ST 2019-11-06 15:36:27.107 DOMESTIC DISTURBANCE
19-1100889 19-12353 530 S DONAGHEY AV 2019-11-06 15:22:04.980 HARASSMENT
19-1100886 19-12355 3900 DAVE WARD DR 2019-11-06 15:12:40.443 FRAUD
19-1100885 855 SALEM RD 2019-11-06 15:10:43.643 ATTEMPT TO CONTACT
19-1100884 1485 OLD MORRILTON HWY 2019-11-06 15:07:42.187 AGENCY ASSIST
19-1100882 615 3RD AV 2019-11-06 14:56:43.850 SUPPLEMENT REPORT CALL
19-1100881 19-12352 1003 MUSEUM RD 2019-11-06 14:42:50.980 THEFT OF VEHICLE
19-1100880 707 ROBINS ST 2019-11-06 14:31:27.993 STALLED VEHICLE
19-1100877 19-12349 455 ELSINGER BLVD 2019-11-06 14:14:15.560 PURSUIT
19-1100876 530 S DONAGHEY AV 2019-11-06 14:12:48.547 CIVIL STAND BY
19-1100875 19-12347 501 ELSINGER BLVD 2019-11-06 13:59:09.430 SHOPLIFTING
19-1100874 1730 OZARK DR 2019-11-06 13:50:54.623 CIVIL STAND BY
19-1100872 2895 GULFSHORE DR 2019-11-06 13:36:33.787 ALARM - HOLD UP or PANIC
19-1100870 1209 E OAK ST 2019-11-06 13:35:04.483 CHECK ON THE WELFARE
19-1100869 19-12345 2300 PRINCE ST 2019-11-06 13:34:03.727 ACCIDENT - PRIVATE PROPERTY
19-1100867 19-12346 1420 ARDEN LN 2019-11-06 13:23:34.033 TRESPASSING
19-1100865 1105 DEER ST 2019-11-06 13:09:17.860 ALARM
19-1100863 19-12344 2900 DAVE WARD DR 2019-11-06 13:07:16.687 ACCIDENT - PROPERTY DAMAGE
19-1100860 19-12343 3900 DAVE WARD DR 2019-11-06 12:58:02.077 ACCIDENT - PRIVATE PROPERTY
19-1100859 3900 DAVE WARD DR 2019-11-06 12:37:05.010 DISTURBANCE
19-1100858 1090 SKYLINE DR 2019-11-06 12:34:23.707 STALLED VEHICLE
19-1100857 19-12342 1305 BIRD SONG DR 2019-11-06 12:26:43.773 UNAUTHORIZED USE OF MOTOR VEHICLE
19-1100855 19-12340 2320 WASHINGTON AV 2019-11-06 12:07:46.527 LOST-STOLEN LICENSE PLATE
19-1100854 19-12339 10 LOWER RIDGE RD 2019-11-06 12:03:11.313 THEFT OF PROPERTY
19-1100853 500 OAK ST 2019-11-06 11:57:06.540 CHECK ON THE WELFARE
19-1100844 1005 SANTA FE TRL 2019-11-06 11:06:14.823 CIVIL MATTER
19-1100841 26 MOCKINGBIRD LN 2019-11-06 10:35:19.283 ATTEMPT TO CONTACT
19-1100840 1630 S DONAGHEY AV 2019-11-06 10:32:21.230 ATTEMPT TO CONTACT
19-1100838 19-12336 515 HARKRIDER ST 2019-11-06 10:27:28.770 THEFT OF PROPERTY
19-1100837 1810 HOGAN LN 2019-11-06 10:22:30.073 DISTURBANCE
19-1100834 1704 MILL ST 2019-11-06 10:11:27.443 CIVIL MATTER
19-1100830 545 E DAVE WARD DR 2019-11-06 09:54:20.257 ALARM - HOLD UP or PANIC
19-1100823 19-12333 820 BILL DEAN DR 2019-11-06 09:31:39.143 THEFT OF PROPERTY
19-1100822 19-12332 5099 DAVE WARD DR 2019-11-06 09:29:26.033 ACCIDENT - PROPERTY DAMAGE
19-1100821 19-12331 1601 HOGAN LN 2019-11-06 09:25:32.573 HARASSING COMMUNICATIONS
19-1100816 1175 NEAL ST 2019-11-06 09:03:22.647 ATTEMPT TO CONTACT
19-1100809 1310 E OAK ST 2019-11-06 08:23:47.267 SUSPICIOUS VEHICLE
19-1100806 2403 JESSICA DR 2019-11-06 08:18:11.913 ATTEMPT TO CONTACT
19-1100803 19-12330 2311 WASHINGTON AV 2019-11-06 08:09:53.860 THEFT OF SERVICES
19-1100799 1601 HOGAN LN 2019-11-06 07:24:46.010 CIVIL STAND BY
19-1100798 19-12328 705 CHERUB DR 2019-11-06 06:58:08.850 DISTURBANCE
19-1100795 3350 OLD MORRILTON HWY 2019-11-06 03:43:25.177 STALLED VEHICLE
19-1100793 511 1ST ST 2019-11-06 03:09:04.013 DOMESTIC DISTURBANCE
19-1100792 605 DAVE WARD DR 2019-11-06 03:07:35.797 CHECKING VEHICLE
19-1100791 701 LOCUST AV 2019-11-06 02:22:58.067 ALARM
19-1100788 2100 FAVRE LN 2019-11-06 01:29:02.157 RECKLESS DRIVER
19-1100787 2310 ROBINSON AV 2019-11-06 01:22:06.147 CHECKING VEHICLE
19-1100772 1655 DAVE WARD DR 2019-11-05 23:01:49.157 UNKNOWN TROUBLE
19-1100771 1 CADRON SETTLEMENT PARK RD 2019-11-05 23:01:44.363 CHECKING BUILDING
19-1100770 1020 FRONT ST 2019-11-05 22:51:12.943 SUPPLEMENT REPORT CALL
19-1100766 19-12326 500 SOUTH GERMAN LN 2019-11-05 22:09:31.573 MISDEMEANOR WARRANT SERVICE
19-1100763 19-12325 1020 FRONT ST 2019-11-05 21:53:36.597 TERRORISTIC THREATENING
19-1100762 19-12323 2125 DAVE WARD DR 2019-11-05 21:42:20.670 SUSPICIOUS ACTIVITY
19-1100761 605 SALEM RD 2019-11-05 21:39:15.380 FRAUD
19-1100758 2105 DAVE WARD DR 2019-11-05 21:20:26.500 SUSPICIOUS ACTIVITY
19-1100756 2300 HOGAN LN 2019-11-05 21:15:52.103 TRAFFIC PROBLEM-CONTROL
19-1100754 19-12322 2695 DAVE WARD DR 2019-11-05 21:01:29.627 DISTURBANCE
19-1100753 1840 STEEPLE LN 2019-11-05 20:54:34.920 DISTURBANCE
19-1100752 1200 THOMAS G WILSON DR 2019-11-05 20:44:00.350 SUPPLEMENT REPORT CALL
19-1100751 19-12319 2300 PRINCE ST 2019-11-05 20:39:41.850 ACCIDENT - PRIVATE PROPERTY
19-1100750 1835 OTT MEMORIAL BLVD 2019-11-05 20:38:46.470 SUSPICIOUS PERSON
19-1100749 1205 DAVE WARD DR 2019-11-05 20:35:47.413 CHECKING VEHICLE
19-1100748 567 ELSINGER BLVD 2019-11-05 20:32:14.863 SUSPICIOUS ACTIVITY
19-1100746 19-12320 515 HARKRIDER ST 2019-11-05 20:23:08.483 DISTURBANCE
19-1100742 2225 PRINCE ST 2019-11-05 20:06:37.937 CHECK ON THE WELFARE
19-1100738 1405 ROBINS ST 2019-11-05 19:56:05.400 CHECKING VEHICLE
19-1100737 2625 DONAGHEY AV 2019-11-05 19:53:02.443 RECKLESS DRIVER
19-1100735 19-12318 2200 WASHINGTON AV 2019-11-05 19:37:10.270 FOUND PROPERTY
19-1100733 3200 DAVE WARD DR 2019-11-05 19:26:14.177 RECKLESS DRIVER
19-1100732 116 DAVIS ST 2019-11-05 19:24:16.303 CHECK ON THE WELFARE
19-1100731 5210 PIEDMONT DR 2019-11-05 19:20:26.167 SUSPICIOUS ACTIVITY
19-1100730 2225 RAINTREE DR 2019-11-05 19:16:16.520 DOMESTIC DISTURBANCE
19-1100729 2200 WASHINGTON AV 2019-11-05 19:14:42.553 LOUD NOISE-MUSIC
19-1100728 35 FORREST CT 2019-11-05 19:14:32.180 UNKNOWN TROUBLE
19-1100727 2275 MOIX BLVD 2019-11-05 19:10:38.763 CIVIL STAND BY
19-1100726 124 I40EB 2019-11-05 18:58:02.727 SUSPICIOUS ACTIVITY
19-1100725 19-12317 1813 CALDWELL ST 2019-11-05 18:50:11.563 ACCIDENT - PERSONAL INJURY
19-1100724 1125 WINEBERRY RD 2019-11-05 18:37:52.900 DOMESTIC DISTURBANCE
19-1100722 150 SKYLINE DR 2019-11-05 18:28:45.963 STALLED VEHICLE
19-1100721 19-12316 1105 PRAIRIE ST 2019-11-05 18:23:36.130 FOUND PROPERTY
19-1100720 2325 HERMES DR 2019-11-05 18:20:29.217 ALARM
19-1100719 1080 S AMITY RD 2019-11-05 18:15:29.777 SUPPLEMENT REPORT CALL
19-1100718 1975 WOODLAND SPRINGS DR 2019-11-05 18:11:21.457 ALARM
19-1100716 300 S DONAGHEY AV 2019-11-05 17:59:49.910 RECKLESS DRIVER
19-1100715 19-12315 2900 PRINCE ST 2019-11-05 17:54:17.377 ACCIDENT - PROPERTY DAMAGE
19-1100714 2510 PRINCE ST 2019-11-05 17:50:39.267 SUSPICIOUS ACTIVITY
19-1100713 19-12314 1400 CALDWELL ST 2019-11-05 17:37:43.490 ACCIDENT - PROPERTY DAMAGE
19-1100712 3202 PRINCE ST 2019-11-05 17:14:16.513 RECKLESS DRIVER
19-1100711 2275 MOIX BLVD 2019-11-05 17:12:01.723 CIVIL STAND BY
19-1100709 19-12313 425 E DAVE WARD DR 2019-11-05 17:08:42.020 ACCIDENT - PROPERTY DAMAGE
19-1100708 3900 DAVE WARD DR 2019-11-05 17:08:27.380 THEFT OF PROPERTY
19-1100706 475 ROBINS ST 2019-11-05 17:00:57.360 COMPUTER CRIMES
19-1100704 1600 E OAK ST 2019-11-05 16:49:40.540 TRESPASSING
19-1100703 19-12312 301 E DAVE WARD DR 2019-11-05 16:47:04.393 ACCIDENT - PERSONAL INJURY
19-1100702 530 S DONAGHEY AV 2019-11-05 16:21:25.203 SUPPLEMENT REPORT CALL
19-1100700 150 E OAK ST 2019-11-05 16:10:44.447 CRIMINAL MISCHIEF
19-1100699 19-12311 1001 E OAK ST 2019-11-05 16:08:10.023 ACCIDENT - PROPERTY DAMAGE
19-1100698 3100 SALEM RD 2019-11-05 16:00:30.260 RECKLESS DRIVER
19-1100697 2465 SANDERS ST 2019-11-05 15:59:13.397 SUSPICIOUS PERSON
19-1100696 1125 INGRAM ST 2019-11-05 15:57:33.437 ATTEMPT TO CONTACT
19-1100692 801 S SALEM RD 2019-11-05 15:43:58.610 AGENCY ASSIST
19-1100691 1715 POTEETE DR 2019-11-05 15:33:33.513 ABANDONED VEHICLE
19-1100690 2915 DAVE WARD DR 2019-11-05 15:28:38.280 ATTEMPT TO CONTACT
19-1100680 19-12306 21 BERNARD DR 2019-11-05 14:21:17.060 CHECKING BUILDING
19-1100679 19-12308 2475 WASHINGTON AV 2019-11-05 14:15:54.410 FRAUD
19-1100673 19-12303 2418 JESSICA DR 2019-11-05 13:50:39.300 HARASSMENT
19-1100672 3200 DAVE WARD DR 2019-11-05 13:45:19.353 STALLED VEHICLE
19-1100671 3200 DAVE WARD DR 2019-11-05 13:43:40.150 RECKLESS DRIVER
19-1100669 1730 OZARK DR 2019-11-05 13:34:54.977 CIVIL MATTER
19-1100668 1730 OZARK DR 2019-11-05 13:32:03.187 CIVIL MATTER
19-1100666 19-12301 1155 SKYLINE DR 2019-11-05 13:30:19.403 HARASSMENT
19-1100663 19-12305 3240 STERMER RD 2019-11-05 13:15:20.627 ATTEMPT TO CONTACT
19-1100661 19-12298 3900 DAVE WARD DR 2019-11-05 13:12:21.353 ACCIDENT - PRIVATE PROPERTY
19-1100658 420 2ND AV 2019-11-05 12:53:58.553 DISTURBANCE
19-1100653 19-12299 3034 DONNELL RIDGE RD 2019-11-05 12:40:38.320 ATTEMPT TO CONTACT
19-1100650 19-12295 1550 GARDENIA 2019-11-05 12:05:04.467 BREAKING OR ENTERING
19-1100649 19-12297 1068 MARKHAM ST 2019-11-05 12:02:29.750 HARASSMENT
19-1100646 475 ROBINS ST 2019-11-05 11:56:51.287 DOMESTIC DISTURBANCE
19-1100638 2200 MEADOWLAKE RD 2019-11-05 10:49:36.403 CHECK ON THE WELFARE
19-1100637 217 GARLAND ST 2019-11-05 10:46:18.753 HARASSMENT
19-1100636 2418 JESSICA DR 2019-11-05 10:34:51.410 ATTEMPT TO CONTACT
19-1100635 1485 OLD MORRILTON HWY 2019-11-05 10:29:23.897 CIVIL STAND BY
19-1100634 1601 S DONAGHEY AV 2019-11-05 10:18:55.670 CIVIL MATTER
19-1100632 1655 OLD MORRILTON HWY 2019-11-05 10:11:00.450 CIVIL MATTER
19-1100631 320 S ASH ST 2019-11-05 10:09:16.480 SUPPLEMENT REPORT CALL
19-1100630 1055 STEEL AV 2019-11-05 10:07:12.590 ALARM - BANK
19-1100629 1601 DAVIS ST 2019-11-05 10:06:00.920 UNAUTHORIZED USE OF MOTOR VEHICLE
19-1100625 19-12293 3100 IRBY DR 2019-11-05 09:36:48.447 ATTEMPT TO CONTACT
19-1100624 2019-11-05 09:32:25.963 CHECK ON THE WELFARE
19-1100623 500 S EAST GERMAN LN 2019-11-05 09:23:18.197 RECKLESS DRIVER
19-1100616 710 CRAIN DR 2019-11-05 09:05:21.953 ATTEMPT TO CONTACT
19-1100613 2100 DAVE WARD DR 2019-11-05 08:58:25.103 RECKLESS DRIVER
19-1100608 1001 DONAGHEY AV 2019-11-05 08:24:46.010 ATTEMPT TO CONTACT
19-1100607 1355 CHAMPIONS DR 2019-11-05 08:11:28.783 BURGLARY
19-1100605 19-12292 101 OAK ST 2019-11-05 08:08:14.587 THEFT OF PROPERTY
19-1100604 19-12291 545 SKYLINE DR 2019-11-05 07:56:50.310 ACCIDENT - PRIVATE PROPERTY
19-1100603 1900 E OAK ST 2019-11-05 07:47:07.540 ALARM - BANK
19-1100601 434 HELEN ST 2019-11-05 07:34:02.067 ATTEMPT TO CONTACT
19-1100599 1310 E OAK ST 2019-11-05 07:20:49.803 ABANDONED VEHICLE
19-1100598 1205 E SKYLINE DR 2019-11-05 05:58:03.093 STALLED VEHICLE
19-1100597 19-12289 2125 HARKRIDER ST 2019-11-05 05:51:24.967 SUSPICIOUS PERSON
19-1100596 3182 STIMPLE DR 2019-11-05 05:48:40.503 BARKING DOG COMPLAINT
19-1100595 19-12288 2010 RICH SMITH LN 2019-11-05 05:09:06.407 THEFT OF VEHICLE
19-1100593 815 E OAK ST 2019-11-05 01:46:05.813 SUSPICIOUS PERSON
19-1100591 480 EXCHANGE AV 2019-11-05 01:25:38.250 TRESPASSING
19-1100585 2051 HARKRIDER ST 2019-11-04 23:59:11.657 CHECKING PERSON
19-1100584 19-12284 500 SOUTH GERMAN LN 2019-11-04 23:49:17.063 MISDEMEANOR WARRANT SERVICE
19-1100583 19-12285 2280 APPLE BLOSSOM 2019-11-04 23:39:02.710 BATTERY REPORT
19-1100582 325 S MITCHELL ST 2019-11-04 23:28:45.270 FIRE DEPT ASSIST
19-1100581 2850 COLLEGE AV 2019-11-04 23:28:31.113 CHECKING BUILDING
19-1100579 1040 TRILLIUM DR 2019-11-04 23:24:48.190 LOUD NOISE-MUSIC
19-1100578 1802 ROBINS ST 2019-11-04 23:16:13.427 CHECKING VEHICLE
19-1100577 350 GRANDVIEW HEIGHTS DR 2019-11-04 23:07:36.340 BARKING DOG COMPLAINT
19-1100576 1100 FLEMING ST 2019-11-04 23:06:19.033 CHECKING PERSON
19-1100575 1155 SKYLINE DR 2019-11-04 22:29:49.890 ATTEMPT TO CONTACT
19-1100574 1225 WOODSIDE DR 2019-11-04 22:09:37.563 911 HANGUP CALL
19-1100573 1155 SKYLINE DR 2019-11-04 22:01:19.950 VEHICLE TOW
19-1100570 19-12283 2450 LANDOVER TRL 2019-11-04 21:30:12.687 ACCIDENT - PROPERTY DAMAGE
19-1100569 127 I40EB 2019-11-04 21:26:21.017 STALLED VEHICLE
19-1100568 19-12282 3200 TYLER ST 2019-11-04 21:22:47.650 ROAD RAGE
19-1100566 1 LOWER RIDGE RD 2019-11-04 21:02:16.173 RECKLESS DRIVER
19-1100565 1620 MIDDLE RD 2019-11-04 21:02:04.883 FIRE DEPT ASSIST
19-1100562 200 S HARKRIDER DR 2019-11-04 20:59:38.477 ALARM
19-1100560 19-12280 1155 SKYLINE DR 2019-11-04 20:44:34.557 SHOPLIFTING
19-1100557 19-12279 475 ROBINS ST 2019-11-04 20:13:45.000 DOMESTIC DISTURBANCE
19-1100556 19-12281 2155 DILLARD DR 2019-11-04 20:08:56.607 TERRORISTIC THREATENING
19-1100555 19-12278 3240 STERMER RD 2019-11-04 19:56:36.807 DISTURBANCE
19-1100550 19-12277 1501 ROBINS ST 2019-11-04 19:29:45.500 INTOXICATED DRIVER
19-1100549 1209 INGRAM ST 2019-11-04 19:22:36.183 ATTEMPT TO CONTACT
19-1100548 3100 IRBY DR 2019-11-04 19:15:54.893 RECKLESS DRIVER
19-1100544 1775 OLD MORRILTON HWY 2019-11-04 18:37:34.503 CHECKING VEHICLE
19-1100542 19-12276 1155 SKYLINE DR 2019-11-04 18:27:13.800 LOST-STOLEN LICENSE PLATE
19-1100541 1628 INDEPENDENCE ST 2019-11-04 18:15:38.993 CIVIL MATTER
19-1100539 19-12275 801 ELSINGER BLVD 2019-11-04 18:04:00.827 SHOPLIFTING
19-1100538 1900 OLD MORRILTON HWY 2019-11-04 17:42:20.733 BATTERY REPORT
19-1100537 1155 SKYLINE DR 2019-11-04 17:24:06.327 ATTEMPT TO CONTACT
19-1100534 150 S HOGAN LN 2019-11-04 17:05:32.637 ALARM
19-1100533 3202 PRINCE ST 2019-11-04 16:54:23.107 TRAFFIC PROBLEM-CONTROL
19-1100532 19-12274 1060 HOGAN LN 2019-11-04 16:47:22.580 ACCIDENT - PRIVATE PROPERTY
19-1100529 19-12273 601 SPRUCE ST 2019-11-04 16:43:39.413 ACCIDENT - PRIVATE PROPERTY
19-1100528 626 4TH AV 2019-11-04 16:37:08.427 SUPPLEMENT REPORT CALL
19-1100527 19-12271 1161 OLD MORRILTON HWY 2019-11-04 16:24:44.040 DISTURBANCE
19-1100526 19-12272 530 S DONAGHEY AV 2019-11-04 16:20:44.347 DOMESTIC DISTURBANCE
19-1100525 4605 RALEIGH DR 2019-11-04 16:11:55.623 BURGLARY
19-1100523 2275 MOIX BLVD 2019-11-04 16:03:40.597 CIVIL MATTER
19-1100521 1115 E OAK ST 2019-11-04 15:59:42.640 SUSPICIOUS PERSON
19-1100520 19-12270 1161 OLD MORRILTON HWY 2019-11-04 15:46:09.413 DISTURBANCE
19-1100519 621 OAK ST 2019-11-04 15:44:31.937 FRAUD
19-1100517 19-12268 626 4TH AV 2019-11-04 15:38:38.667 THEFT OF PROPERTY
19-1100512 530 S DONAGHEY AV 2019-11-04 14:57:24.113 TERRORISTIC THREATENING
19-1100510 505 CADRON GAP RD 2019-11-04 14:47:30.263 ALARM
19-1100507 2739 DAVE WARD DR 2019-11-04 14:02:30.087 SUPPLEMENT REPORT CALL
19-1100506 1010 MAIN ST 2019-11-04 13:47:59.397 SUPPLEMENT REPORT CALL
19-1100505 3075 SASSY RD 2019-11-04 13:44:10.843 SUPPLEMENT REPORT CALL
19-1100503 1112 OAK ST 2019-11-04 13:41:50.677 HARASSMENT
19-1100501 3180 DAVE WARD DR 2019-11-04 13:30:47.373 ATTEMPT TO CONTACT
19-1100500 1025 S DONAGHEY AV 2019-11-04 13:28:34.100 CIVIL MATTER
19-1100499 456 FACTORY ST 2019-11-04 13:28:00.347 FOUND PROPERTY
19-1100498 19-12267 2320 WASHINGTON AV 2019-11-04 13:26:12.960 THEFT OF PROPERTY
19-1100496 226 HARKRIDER ST 2019-11-04 13:05:16.587 STALLED VEHICLE
19-1100495 19-12264 1250 S AMITY RD 2019-11-04 13:01:45.720 TERRORISTIC THREATENING
19-1100494 19-12265 1100 STURGIS RD 2019-11-04 13:01:26.933 ACCIDENT - PROPERTY DAMAGE
19-1100493 19-12261 120 S HARKRIDER DR 2019-11-04 12:19:07.650 THEFT OF PROPERTY
19-1100490 19-12258 2499 SANDERS ST 2019-11-04 11:50:03.310 ACCIDENT - PROPERTY DAMAGE
19-1100489 1601 HOGAN LN 2019-11-04 11:49:28.380 VEHICLE TOW
19-1100488 1601 HOGAN LN 2019-11-04 11:48:49.080 VEHICLE TOW
19-1100487 1601 HOGAN LN 2019-11-04 11:47:45.993 VEHICLE TOW
19-1100486 1601 HOGAN LN 2019-11-04 11:47:05.200 VEHICLE TOW
19-1100484 19-12259 205 E OAK ST 2019-11-04 11:39:29.770 ACCIDENT - PRIVATE PROPERTY
19-1100483 19-12256 2605 COLLEGE AV 2019-11-04 11:37:02.497 ACCIDENT - PROPERTY DAMAGE
19-1100482 530 S DONAGHEY AV 2019-11-04 11:33:22.227 VEHICLE TOW
19-1100480 1601 HOGAN LN 2019-11-04 11:32:27.620 THEFT OF PROPERTY
19-1100479 19-12257 2739 DAVE WARD DR 2019-11-04 11:31:53.407 TERRORISTIC THREATENING
19-1100478 127 I40WB 2019-11-04 11:30:06.600 ACCIDENT - PROPERTY DAMAGE
19-1100477 401 2ND ST 2019-11-04 11:22:04.030 CIVIL MATTER
19-1100476 19-12251 855 CROSSPOINT RD 2019-11-04 11:19:49.177 PROPERTY DAMAGE
19-1100475 19-12252 1155 SKYLINE DR 2019-11-04 11:14:49.273 ACCIDENT - PERSONAL INJURY
19-1100474 19-12254 900 CENTER ST 2019-11-04 11:14:47.367 ACCIDENT - PROPERTY DAMAGE
19-1100473 19-12249 2603 DAVE WARD DR 2019-11-04 11:13:22.630 ABUSE
19-1100470 545 E DAVE WARD DR 2019-11-04 10:52:53.330 ARMED SUBJECT
19-1100468 19-12248 2603 DAVE WARD DR 2019-11-04 10:49:20.290 ABUSE
19-1100466 19-12255 1010 MAIN ST 2019-11-04 10:35:45.687 HARASSING COMMUNICATIONS
19-1100460 401 2ND ST 2019-11-04 10:15:14.933 CIVIL STAND BY
19-1100459 19-12245 2500 DAVE WARD DR 2019-11-04 10:11:28.000 ACCIDENT - PROPERTY DAMAGE
19-1100458 1000 WESTERN AV 2019-11-04 10:11:13.703 TRAFFIC PROBLEM-CONTROL
19-1100456 19-12244 810 PARKWAY ST 2019-11-04 10:02:30.283 DISORDERLY CONDUCT
19-1100452 1035 DAVIS ST 2019-11-04 09:49:27.410 THEFT OF PROPERTY
19-1100450 19-12242 320 S ASH ST 2019-11-04 09:44:34.380 CRIMINAL MISCHIEF
19-1100449 872 HEATHER CIR 2019-11-04 09:20:40.290 HARASSING COMMUNICATIONS
19-1100448 1101 OAK ST 2019-11-04 09:18:00.157 RECKLESS DRIVER
19-1100447 19-12241 2475 CHRISTINA LN 2019-11-04 09:14:06.990 ATTEMPT TO CONTACT
19-1100445 2300 HOGAN LN 2019-11-04 08:56:08.137 STALLED VEHICLE
19-1100441 19-12240 621 OAK ST 2019-11-04 08:44:03.870 THEFT OF PROPERTY
19-1100440 3 FAIR OAKS DR 2019-11-04 08:42:00.307 ALARM
19-1100438 19-12237 605 DAVE WARD DR 2019-11-04 08:02:08.463 ACCIDENT - PROPERTY DAMAGE
19-1100437 19-12234 400 E DAVE WARD DR 2019-11-04 07:54:53.243 ACCIDENT - PROPERTY DAMAGE
19-1100436 19-12235 1200 E DAVE WARD DR 2019-11-04 07:49:25.227 ACCIDENT - PROPERTY DAMAGE
19-1100435 1962 BRUCE ST 2019-11-04 07:48:52.837 CIVIL MATTER
19-1100434 19-12233 1701 SALEM RD 2019-11-04 07:45:12.710 ACCIDENT - PROPERTY DAMAGE
19-1100433 1523 MILL ST 2019-11-04 07:10:34.880 CHECK ON THE WELFARE
19-1100430 1217 FRONT ST 2019-11-04 04:50:21.997 ALARM
19-1100426 1200 SPENCER ST 2019-11-04 02:13:07.390 STALLED VEHICLE
19-1100424 620 ELSINGER BLVD 2019-11-04 01:38:55.553 ALARM
19-1100423 1617 SCOTT ST 2019-11-04 01:19:31.577 CHECKING VEHICLE
19-1100422 2114 ARKANSAS AV 2019-11-04 00:59:55.890 SUSPICIOUS PERSON
19-1100419 501 HOGAN LN 2019-11-04 00:22:00.440 CHECKING BUILDING
19-1100415 2840 DAVE WARD DR 2019-11-03 23:52:15.477 CITIZEN ASSIST
19-1100414 1612 WESTLAKE DR 2019-11-03 23:36:01.657 REPOSSESSION
19-1100412 1940 RICH SMITH LN 2019-11-03 22:57:06.053 LOUD NOISE-MUSIC
19-1100410 2101 TYLER ST 2019-11-03 22:50:46.230 CHECK ON THE WELFARE
19-1100408 19-12231 2051 HARKRIDER ST 2019-11-03 22:28:56.087 SUSPICIOUS PERSON
19-1100407 3215 PEBBLE BEACH DR 2019-11-03 21:37:44.223 CHECK ON THE WELFARE
19-1100406 11 PATTON CIR 2019-11-03 21:29:07.637 ILLEGAL DUMPING
19-1100405 420 3RD AV 2019-11-03 21:24:30.163 911 HANGUP CALL
19-1100404 867 FENDLEY DR 2019-11-03 21:16:15.993 TRESPASSING
19-1100402 19-12230 500 SOUTH GERMAN LN 2019-11-03 20:42:53.700 MISDEMEANOR WARRANT SERVICE
19-1100401 5200 BAY TOWN DR 2019-11-03 20:21:01.163 SUSPICIOUS VEHICLE
19-1100400 19 TUCKER CREEK RD 2019-11-03 20:11:16.957 SHOTS FIRED
19-1100398 205 2ND ST 2019-11-03 20:07:35.310 DOMESTIC DISTURBANCE
19-1100397 2550 PRINCE ST 2019-11-03 20:02:25.530 DISCHARGING FIREWORKS
19-1100396 2815 PEBBLE BEACH DR 2019-11-03 19:48:49.243 FOUND PROPERTY
19-1100395 1213 MARKHAM ST 2019-11-03 19:38:32.280 TRESPASSING
19-1100393 1010 MAIN ST 2019-11-03 19:20:00.780 TERRORISTIC THREATENING
19-1100392 124 I40EB 2019-11-03 19:18:49.657 AGENCY ASSIST
19-1100391 1516 ROBINS ST 2019-11-03 19:17:41.103 DOMESTIC DISTURBANCE
19-1100390 401 2ND ST 2019-11-03 19:14:13.340 SUSPICIOUS VEHICLE
19-1100386 19-12229 1901 E OAK ST 2019-11-03 19:02:30.880 ACCIDENT - PERSONAL INJURY
19-1100384 1001 EAST GERMAN LN 2019-11-03 18:47:56.353 RECKLESS DRIVER
19-1100383 3900 DAVE WARD DR 2019-11-03 18:28:20.697 ATTEMPT TO CONTACT
19-1100382 1650 S DONAGHEY AV 2019-11-03 17:34:41.127 CIVIL STAND BY
19-1100381 19-12227 1904 HOGAN LN 2019-11-03 17:10:43.943 CIVIL STAND BY
19-1100380 19-12226 4 SHADY LANE DR 2019-11-03 17:08:17.690 DOMESTIC DISTURBANCE
19-1100379 506 OAK ST 2019-11-03 16:56:03.483 ALARM
19-1100377 1267 HARTON ST 2019-11-03 16:55:31.130 FRAUD
19-1100375 1601 HOGAN LN 2019-11-03 16:37:38.930 ATTEMPT TO CONTACT
19-1100374 3900 DAVE WARD DR 2019-11-03 16:29:19.337 THEFT OF PROPERTY
19-1100373 207 WILLOW ST 2019-11-03 16:23:22.540 FIRE DEPT ASSIST
19-1100372 19-12224 580 E DAVE WARD DR 2019-11-03 16:19:31.767 ACCIDENT - PERSONAL INJURY
19-1100370 19-12225 1817 WASHINGTON AV 2019-11-03 16:09:35.480 TRESPASSING
19-1100369 1601 HOGAN LN 2019-11-03 16:05:12.790 CITIZEN ASSIST
19-1100368 912 FRONT ST 2019-11-03 16:01:53.567 AGENCY ASSIST
19-1100367 1105 SKYLINE DR 2019-11-03 16:00:33.793 CIVIL MATTER
19-1100366 3430 IRBY DR 2019-11-03 15:57:35.573 CIVIL STAND BY
19-1100364 3900 DAVE WARD DR 2019-11-03 15:33:01.993 RECKLESS DRIVER
19-1100363 601 SPRUCE ST 2019-11-03 15:32:16.100 ACCIDENT - PRIVATE PROPERTY
19-1100362 475 ROBINS ST 2019-11-03 15:16:22.627 LOUD NOISE-MUSIC
19-1100361 2465 PEABODY DR 2019-11-03 14:59:05.983 ATTEMPT TO CONTACT
19-1100360 1525 CLIFTON ST 2019-11-03 14:40:56.020 SUSPICIOUS PERSON
19-1100359 19-12222 2560 DONAGHEY AV 2019-11-03 14:40:07.963 ACCIDENT - PRIVATE PROPERTY
19-1100357 19-12221 417 S CENTER ST 2019-11-03 14:17:36.813 ABUSE
19-1100355 1405 S DONAGHEY AV 2019-11-03 13:53:20.627 SUSPICIOUS ACTIVITY
19-1100354 19-12220 3099 SALEM RD 2019-11-03 13:49:37.390 ACCIDENT - PERSONAL INJURY
19-1100352 2019-11-03 13:46:09.413 RECOVERED VEHICLE
19-1100350 405 OAK ST 2019-11-03 13:31:14.280 CHECKING PERSON
19-1100349 2200 WASHINGTON AV 2019-11-03 13:30:13.680 ATTEMPT TO CONTACT
19-1100348 1116 GUM ST 2019-11-03 13:29:11.393 ATTEMPT TO CONTACT
19-1100347 1111 E OAK ST 2019-11-03 13:17:14.790 INTOXICATED DRIVER
19-1100345 150 E SIEBENMORGEN RD 2019-11-03 12:46:52.010 SUPPLEMENT REPORT CALL
19-1100344 650 SKYLINE DR 2019-11-03 12:42:20.497 CHECK ON THE WELFARE
19-1100342 150 E SIEBENMORGEN RD 2019-11-03 12:22:12.883 SUPPLEMENT REPORT CALL
19-1100341 885 WOODARD DR 2019-11-03 12:16:30.697 TERRORISTIC THREATENING
19-1100340 880 TURNER TRL 2019-11-03 12:13:36.283 RECKLESS DRIVER
19-1100338 1116 GUM ST 2019-11-03 11:59:42.310 SUSPICIOUS PERSON
19-1100337 1827 SIMMS ST 2019-11-03 11:58:48.027 ATTEMPT TO CONTACT
19-1100335 605 SOUTH GERMAN LN 2019-11-03 11:08:09.237 SUPPLEMENT REPORT CALL
19-1100333 401 2ND ST 2019-11-03 10:56:30.953 AGENCY ASSIST
19-1100330 855 SALEM RD 2019-11-03 10:29:37.893 ATTEMPT TO CONTACT
19-1100328 1116 GUM ST 2019-11-03 10:27:18.833 BURGLARY
19-1100327 19-12218 855 SALEM RD 2019-11-03 09:48:46.027 CHECK ON THE WELFARE
19-1100325 411 S CENTER ST 2019-11-03 09:20:40.920 SUSPICIOUS PERSON
19-1100324 1525 CLIFTON ST 2019-11-03 09:13:51.530 ATTEMPT TO CONTACT
19-1100322 19 WESTIN DR 2019-11-03 08:43:11.253 ALARM
19-1100321 135 SOUTHERLAND RD 2019-11-03 08:39:52.607 DISTURBANCE
19-1100320 19-12217 150 E SIEBENMORGEN RD 2019-11-03 08:35:52.747 MISSING PERSON
19-1100319 1010 MAIN ST 2019-11-03 08:34:13.207 DISTURBANCE
19-1100318 19-12216 1805 OTT MEMORIAL BLVD 2019-11-03 08:19:23.080 DOMESTIC DISTURBANCE
19-1100315 1525 CLIFTON ST 2019-11-03 06:47:31.020 ATTEMPT TO CONTACT
19-1100313 1805 OTT MEMORIAL BLVD 2019-11-03 06:43:09.260 DOMESTIC DISTURBANCE
19-1100312 401 2ND ST 2019-11-03 06:16:55.510 ATTEMPT TO CONTACT
19-1100311 401 2ND ST 2019-11-03 05:20:18.620 SUSPICIOUS PERSON
19-1100310 401 2ND ST 2019-11-03 04:44:41.757 ATTEMPT TO CONTACT
19-1100309 401 2ND ST 2019-11-03 04:30:51.573 PROWLER
19-1100308 855 SALEM RD 2019-11-03 04:04:47.857 CHECK ON THE WELFARE
19-1100306 4095 PRINCE ST 2019-11-03 02:29:27.587 CHECKING VEHICLE
19-1100304 140 OAKLAWN DR 2019-11-03 02:01:34.813 SUSPICIOUS ACTIVITY
19-1100303 1080 S AMITY RD 2019-11-03 01:58:38.033 CRIMINAL MISCHIEF
19-1100302 1730 PENNY ST 2019-11-03 01:26:14.233 LOUD NOISE-MUSIC
19-1100300 1525 CLIFTON ST 2019-11-03 01:12:47.900 TERRORISTIC THREATENING
19-1100299 1018 DAVIS ST 2019-11-03 01:10:39.550 RECKLESS DRIVER
19-1100298 3100 IRBY DR 2019-11-03 01:09:50.530 LOUD NOISE-MUSIC
19-1100297 675 AMITY RD 2019-11-03 00:51:16.773 FIGHT
19-1100296 475 ROBINS ST 2019-11-03 00:47:30.147 ASSAULT
19-1100294 1224 JERSEY ST 2019-11-03 00:21:40.230 TRESPASSING
19-1100291 2670 DONAGHEY AV 2019-11-02 23:53:34.110 ALARM
19-1100290 205 E OAK ST 2019-11-02 23:52:39.727 SUSPICIOUS PERSON
19-1100289 2203 WEST ST 2019-11-02 23:42:57.963 LOUD NOISE-MUSIC
19-1100288 2535 KRYSTAL KREEK DR 2019-11-02 23:22:18.997 BARKING DOG COMPLAINT
19-1100286 1018 DAVIS ST 2019-11-02 23:02:12.020 LOUD NOISE-MUSIC
19-1100285 590 EAST GERMAN LN 2019-11-02 22:50:41.230 ATTEMPT TO CONTACT
19-1100284 513 3RD AV 2019-11-02 22:10:43.280 CIVIL MATTER
19-1100283 590 EAST GERMAN LN 2019-11-02 22:04:34.960 911 HANGUP CALL
19-1100282 1525 CLIFTON ST 2019-11-02 21:56:59.503 SUPPLEMENT REPORT CALL
19-1100281 501 ELSINGER BLVD 2019-11-02 21:54:17.103 ACCIDENT - PRIVATE PROPERTY
19-1100280 1999 ARROWHEAD LN 2019-11-02 21:54:10.307 SUSPICIOUS VEHICLE
19-1100279 19-12212 207 S CENTER ST 2019-11-02 21:49:23.630 SHOTS FIRED
19-1100278 19-12211 48 KENSINGTON DR 2019-11-02 21:42:44.070 COMPUTER CRIMES
19-1100277 19-12209 1525 CLIFTON ST 2019-11-02 21:27:38.113 SHOOTING
19-1100275 19-12210 3800 COLLEGE AV 2019-11-02 21:15:27.450 BATTERY REPORT
19-1100273 1105 PRAIRIE ST 2019-11-02 20:37:32.167 ATTEMPT TO CONTACT
19-1100271 690 S SALEM RD 2019-11-02 20:34:48.783 ALARM
19-1100267 1420 ARDEN LN 2019-11-02 20:08:28.183 FIRE DEPT ASSIST
19-1100265 19-12208 1080 S AMITY RD 2019-11-02 20:00:35.760 THEFT OF PROPERTY
19-1100264 19-12207 1525 CLIFTON ST 2019-11-02 19:58:42.123 ARMED SUBJECT
19-1100263 425 2ND AV 2019-11-02 19:46:21.820 CHECK ON THE WELFARE
19-1100262 2290 WILMINGTON DR 2019-11-02 19:27:35.690 ANIMAL BITE
19-1100261 1105 PRAIRIE ST 2019-11-02 19:20:20.627 ATTEMPT TO CONTACT
19-1100260 124 I40WB 2019-11-02 19:18:41.627 ACCIDENT - PROPERTY DAMAGE
19-1100259 19-12206 3100 SALEM RD 2019-11-02 19:14:06.417 ACCIDENT - PROPERTY DAMAGE
19-1100257 19-12205 2164 HARKRIDER ST 2019-11-02 19:04:54.480 ACCIDENT - PRIVATE PROPERTY
19-1100256 19-12204 906 PINE ST 2019-11-02 18:45:31.210 ATTEMPT TO CONTACT
19-1100255 1420 ARDEN LN 2019-11-02 18:41:57.953 LOUD NOISE-MUSIC
19-1100254 353 MILDRED ST 2019-11-02 18:41:43.600 REPOSSESSION
19-1100253 4095 PRINCE ST 2019-11-02 18:26:49.840 SUSPICIOUS PERSON
19-1100252 1171 E OAK ST 2019-11-02 18:22:37.407 STALLED VEHICLE
19-1100251 19-12202 2200 WASHINGTON AV 2019-11-02 18:04:23.943 DISTURBANCE
19-1100250 19-12203 335 S DAVIS ST 2019-11-02 17:58:59.760 FIGHT
19-1100249 411 S ASH ST 2019-11-02 17:36:19.800 LOUD NOISE-MUSIC
19-1100248 145 FOUR WINDS DR 2019-11-02 17:30:00.760 CHECK ON THE WELFARE
19-1100247 1209 E OAK ST 2019-11-02 17:27:38.070 RECKLESS DRIVER
19-1100246 1695 SOUTH GERMAN LN 2019-11-02 17:05:32.040 ALARM
19-1100245 1039 CLIFTON ST 2019-11-02 16:52:31.997 CIVIL MATTER
19-1100244 2125 HARKRIDER ST 2019-11-02 16:33:24.587 DISTURBANCE
19-1100242 23 THOUSAND OAKS CIR 2019-11-02 16:10:44.900 ALARM
19-1100241 19-12200 207 WILLOW ST 2019-11-02 16:02:40.780 CHECK ON THE WELFARE
19-1100240 19-12201 1818 HOGAN LN 2019-11-02 15:47:30.820 DOMESTIC DISTURBANCE
19-1100239 511 1ST ST 2019-11-02 15:16:33.630 VEHICLE TOW
19-1100238 19-12199 2799 SALEM RD 2019-11-02 15:13:29.223 ACCIDENT - PROPERTY DAMAGE
19-1100237 19-12197 1120 HARRISON ST 2019-11-02 14:46:14.880 ACCIDENT - PRIVATE PROPERTY
19-1100233 3240 STERMER RD 2019-11-02 13:54:20.340 SUPPLEMENT REPORT CALL
19-1100232 160 LOWER RIDGE RD 2019-11-02 13:51:39.920 CHECK ON THE WELFARE
19-1100230 19-12196 1200 E DAVE WARD DR 2019-11-02 13:36:29.483 ACCIDENT - PROPERTY DAMAGE
19-1100228 805 AMITY RD 2019-11-02 13:20:58.563 THEFT OF PROPERTY
19-1100226 1050 ELLIS AV 2019-11-02 13:15:20.953 SUPPLEMENT REPORT CALL
19-1100224 1650 S DONAGHEY AV 2019-11-02 13:04:15.390 CIVIL STAND BY
19-1100223 1930 RICH SMITH LN 2019-11-02 13:01:31.347 CRIMINAL MISCHIEF
19-1100222 244 OAK ST 2019-11-02 13:01:02.630 CIVIL MATTER
19-1100221 2007 CLEVELAND AV 2019-11-02 13:00:27.470 ATTEMPT TO CONTACT
19-1100220 19-12194 831 NUTTERS CHAPEL RD 2019-11-02 12:52:42.937 DEATH CALL
19-1100218 3034 DONNELL RIDGE RD 2019-11-02 12:47:51.963 DOMESTIC DISTURBANCE
19-1100217 19-12192 400 WILLOW ST 2019-11-02 12:27:43.123 HARASSMENT
19-1100216 899 AMITY RD 2019-11-02 12:19:34.393 RECKLESS DRIVER
19-1100215 1050 ELLIS AV 2019-11-02 12:18:32.470 SUPPLEMENT REPORT CALL
19-1100214 19-12191 201 SKYLINE DR 2019-11-02 12:13:21.350 ACCIDENT - PROPERTY DAMAGE
19-1100212 2650 DONAGHEY AV 2019-11-02 12:04:21.283 ACCIDENT - PROPERTY DAMAGE
19-1100211 2100 DAVE WARD DR 2019-11-02 12:01:46.983 FOUND PROPERTY
19-1100210 27 TIMBERLANE TRL 2019-11-02 11:53:29.653 CIVIL STAND BY
19-1100209 1642 ROBINS ST 2019-11-02 11:42:51.167 REPOSSESSION
19-1100208 1601 HOGAN LN 2019-11-02 11:34:58.243 CIVIL MATTER
19-1100207 19-12193 2840 DAVE WARD DR 2019-11-02 11:30:56.957 ACCIDENT - PRIVATE PROPERTY
19-1100206 19-12190 1525 CLIFTON ST 2019-11-02 11:27:41.330 SHOTS FIRED
19-1100205 19-12189 1050 ELLIS AV 2019-11-02 11:21:32.467 RUNAWAY
19-1100204 2010 E OAK ST 2019-11-02 11:15:44.093 ATTEMPT TO CONTACT
19-1100203 2105 SPRING VALLEY DR 2019-11-02 11:14:40.793 CIVIL MATTER
19-1100201 601 DAVE WARD DR 2019-11-02 10:42:08.837 ATTEMPT TO CONTACT
19-1100199 315 HUBBARD RD 2019-11-02 08:38:40.720 FIRE DEPT ASSIST
19-1100198 19-12187 4955 ABBEY GAIL DR 2019-11-02 08:37:33.450 DEATH CALL
19-1100195 1218 JERSEY ST 2019-11-02 08:23:39.983 ATTEMPT TO CONTACT
19-1100192 1155 SKYLINE DR 2019-11-02 08:01:21.817 TRAFFIC PROBLEM-CONTROL
19-1100191 1155 CUMULUS DR 2019-11-02 07:41:57.677 DOMESTIC DISTURBANCE
19-1100190 600 CLUB LN 2019-11-02 06:40:22.237 ALARM
19-1100189 4415 EMERALD GARDEN RD 2019-11-02 05:50:15.720 ALARM
19-1100188 810 CRAIN DR 2019-11-02 05:43:01.140 ALARM
19-1100185 905 E OAK ST 2019-11-02 04:50:40.457 SUSPICIOUS PERSON
19-1100181 401 2ND ST 2019-11-02 02:22:31.213 AGENCY ASSIST
19-1100180 3700 DAVE WARD DR 2019-11-02 02:20:46.073 CHECK ON THE WELFARE
19-1100179 530 S DONAGHEY AV 2019-11-02 02:06:10.520 LOUD NOISE-MUSIC
19-1100178 580 E DAVE WARD DR 2019-11-02 01:54:39.800 INTOXICATED DRIVER
19-1100177 235 FARRIS RD 2019-11-02 01:49:45.147 BATTERY REPORT
19-1100175 600 WESTHAVEN DR 2019-11-02 01:24:15.307 DOMESTIC DISTURBANCE
19-1100174 2420 BROADVIEW AV 2019-11-02 01:11:25.940 SUSPICIOUS PERSON
19-1100172 1010 MAIN ST 2019-11-02 01:04:30.380 DISTURBANCE
19-1100170 205 E OAK ST 2019-11-02 00:37:05.493 INTOXICATED DRIVER
19-1100169 19-12183 5 AZALEA LP 2019-11-02 00:33:26.227 BATTERY REPORT
19-1100167 530 S DONAGHEY AV 2019-11-02 00:24:18.247 LOUD NOISE-MUSIC
Call Number Case Number Address Call Time Incident Type

General Contacts

POLICE HEADQUARTERS
1105 Prairie Street
Conway, AR 72032

Conway Police Department


  911 (EMERGENCIES ONLY)

  501.450.6120 (non-emergency)

ANONYMOUS TIPS
 Leave a message at 501.450.6135
 Text CONWAY and your tip to 274637 (CRIMES) Click for an Example

   

City of Conway

We, the members of the Conway Police Department, are committed to protecting and serving the citizens of Conway, Arkansas. That is our highest calling, as we pledge to join hands with others in carrying out our sworn duty to uphold the law.

Chief Jody Spradlin

Latest Tweets